Skip Navigation
Skip Navigation

Today's Weather Data

Time Wind Dir Wind Spd
mph
Wind Gust
mph
Hum In
%
Humidity
%
Temp In
F
Temp
F
Raw Barom
in
Tot Rain
in
UV Solar
W/sqm
DailyRain
in
HourRain
in
24HrRain
in
RainRate
in/hr
10/31/2014 12:00:59a 336 2 4 34 79 79.7 60.0 29.99 1.00 0.0 0 0.00 0.00 0.00 0.000
10/31/2014 12:01:59a 336 3 4 33 79 79.7 60.0 29.99 1.00 0.0 0 0.00 0.00 0.00 0.000
10/31/2014 12:02:59a 336 3 4 33 79 79.7 60.0 29.99 1.00 0.0 0 0.00 0.00 0.00 0.000
10/31/2014 12:03:59a 336 4 4 33 79 79.5 60.0 29.99 1.00 0.0 0 0.00 0.00 0.00 0.000
10/31/2014 12:04:59a 336 1 4 33 79 79.5 59.8 29.99 1.00 0.0 0 0.00 0.00 0.00 0.000
10/31/2014 12:05:59a 336 1 4 34 79 79.5 59.7 29.99 1.00 0.0 0 0.00 0.00 0.00 0.000
10/31/2014 12:06:59a 336 1 4 33 79 79.5 59.6 29.99 1.00 0.0 0 0.00 0.00 0.00 0.000
10/31/2014 12:07:59a 336 2 4 33 79 79.5 59.5 29.99 1.00 0.0 0 0.00 0.00 0.00 0.000
10/31/2014 12:08:59a 336 2 4 34 79 79.5 59.4 29.99 1.00 0.0 0 0.00 0.00 0.00 0.000
10/31/2014 12:09:59a 336 1 4 34 79 79.5 59.3 29.99 1.00 0.0 0 0.00 0.00 0.00 0.000
10/31/2014 12:10:59a 336 2 4 34 79 79.5 59.3 29.99 1.00 0.0 0 0.00 0.00 0.00 0.000
10/31/2014 12:11:59a 336 1 4 34 79 79.5 59.3 29.99 1.00 0.0 0 0.00 0.00 0.00 0.000
10/31/2014 12:14:00a 336 0 4 33 79 79.3 59.3 29.99 1.00 0.0 0 0.00 0.00 0.00 0.000
10/31/2014 12:15:00a 336 0 4 33 80 79.3 59.4 29.99 1.00 0.0 0 0.00 0.00 0.00 0.000
10/31/2014 12:16:00a 336 0 4 33 80 79.3 59.5 29.99 1.00 0.0 0 0.00 0.00 0.00 0.000
10/31/2014 12:17:00a 336 0 4 33 80 79.3 59.6 29.99 1.00 0.0 0 0.00 0.00 0.00 0.000
10/31/2014 12:18:00a 336 0 4 34 80 79.3 59.7 29.99 1.00 0.0 0 0.00 0.00 0.00 0.000
10/31/2014 12:19:00a 336 0 0 33 80 79.3 59.7 29.99 1.00 0.0 0 0.00 0.00 0.00 0.000
10/31/2014 12:20:00a 336 1 2 33 80 79.3 59.7 29.99 1.00 0.0 0 0.00 0.00 0.00 0.000
10/31/2014 12:21:06a 336 3 3 34 80 79.3 59.7 29.99 1.00 0.0 0 0.00 0.00 0.00 0.000
10/31/2014 12:22:06a 336 1 3 33 80 79.1 59.6 29.99 1.00 0.0 0 0.00 0.00 0.00 0.000
10/31/2014 12:23:06a 336 1 3 33 80 79.1 59.6 29.99 1.00 0.0 0 0.00 0.00 0.00 0.000
10/31/2014 12:24:06a 336 0 3 34 80 79.1 59.6 29.98 1.00 0.0 0 0.00 0.00 0.00 0.000
10/31/2014 12:25:06a 336 1 3 34 80 79.1 59.6 29.98 1.00 0.0 0 0.00 0.00 0.00 0.000
10/31/2014 12:26:06a 336 1 3 34 80 79.1 59.6 29.98 1.00 0.0 0 0.00 0.00 0.00 0.000
10/31/2014 12:27:06a 336 3 3 34 80 79.1 59.4 29.98 1.00 0.0 0 0.00 0.00 0.00 0.000
10/31/2014 12:28:06a 336 2 3 33 79 79.1 59.4 29.98 1.00 0.0 0 0.00 0.00 0.00 0.000
10/31/2014 12:29:06a 336 0 3 33 79 79.1 59.4 29.99 1.00 0.0 0 0.00 0.00 0.00 0.000
10/31/2014 12:30:06a 336 1 3 33 79 79.1 59.4 29.99 1.00 0.0 0 0.00 0.00 0.00 0.000
10/31/2014 12:31:06a 336 1 3 33 79 78.9 59.3 29.98 1.00 0.0 0 0.00 0.00 0.00 0.000
10/31/2014 12:32:07a 336 0 3 33 79 78.9 59.3 29.99 1.00 0.0 0 0.00 0.00 0.00 0.000
10/31/2014 12:33:07a 336 2 3 33 80 78.9 59.3 29.99 1.00 0.0 0 0.00 0.00 0.00 0.000
10/31/2014 12:34:07a 336 2 3 33 80 78.9 59.3 29.99 1.00 0.0 0 0.00 0.00 0.00 0.000
10/31/2014 12:35:07a 336 1 3 33 80 78.9 59.4 29.99 1.00 0.0 0 0.00 0.00 0.00 0.000
10/31/2014 12:36:07a 336 2 3 33 80 78.9 59.4 29.99 1.00 0.0 0 0.00 0.00 0.00 0.000
10/31/2014 12:37:07a 336 1 3 33 80 78.9 59.4 29.99 1.00 0.0 0 0.00 0.00 0.00 0.000
10/31/2014 12:38:07a 336 2 3 33 80 78.9 59.4 29.99 1.00 0.0 0 0.00 0.00 0.00 0.000
10/31/2014 12:39:07a 336 3 4 33 79 78.9 59.3 29.99 1.00 0.0 0 0.00 0.00 0.00 0.000
10/31/2014 12:40:07a 336 3 4 33 79 78.8 59.3 29.99 1.00 0.0 0 0.00 0.00 0.00 0.000
10/31/2014 12:41:07a 336 2 4 33 79 78.8 59.2 29.99 1.00 0.0 0 0.00 0.00 0.00 0.000
10/31/2014 12:42:07a 336 2 4 33 79 78.8 58.9 29.98 1.00 0.0 0 0.00 0.00 0.00 0.000
10/31/2014 12:43:07a 336 2 4 33 79 78.8 58.8 29.98 1.00 0.0 0 0.00 0.00 0.00 0.000
10/31/2014 12:44:07a 336 2 4 33 79 78.8 58.7 29.98 1.00 0.0 0 0.00 0.00 0.00 0.000
10/31/2014 12:45:07a 336 3 4 33 79 78.8 58.6 29.98 1.00 0.0 0 0.00 0.00 0.00 0.000
10/31/2014 12:46:07a 336 2 4 33 79 78.8 58.6 29.98 1.00 0.0 0 0.00 0.00 0.00 0.000
10/31/2014 12:47:11a 336 1 4 33 79 78.8 58.7 29.98 1.00 0.0 0 0.00 0.00 0.00 0.000
10/31/2014 12:48:11a 336 0 4 33 80 78.8 58.8 29.98 1.00 0.0 0 0.00 0.00 0.00 0.000
10/31/2014 12:49:11a 336 0 0 33 80 78.8 58.9 29.98 1.00 0.0 0 0.00 0.00 0.00 0.000
10/31/2014 12:50:11a 336 0 0 33 80 78.6 59.0 29.98 1.00 0.0 0 0.00 0.00 0.00 0.000
10/31/2014 12:51:11a 336 0 0 33 80 78.6 59.0 29.98 1.00 0.0 0 0.00 0.00 0.00 0.000
10/31/2014 12:52:11a 336 0 1 33 80 78.6 59.0 29.98 1.00 0.0 0 0.00 0.00 0.00 0.000
10/31/2014 12:53:11a 336 0 1 33 80 78.6 59.0 29.98 1.00 0.0 0 0.00 0.00 0.00 0.000
10/31/2014 12:54:11a 336 0 1 33 80 78.6 59.1 29.98 1.00 0.0 0 0.00 0.00 0.00 0.000
10/31/2014 12:55:11a 336 0 1 33 80 78.6 59.1 29.98 1.00 0.0 0 0.00 0.00 0.00 0.000
10/31/2014 12:56:11a 336 0 1 33 80 78.6 59.1 29.98 1.00 0.0 0 0.00 0.00 0.00 0.000
10/31/2014 12:57:11a 336 0 1 33 80 78.6 59.2 29.98 1.00 0.0 0 0.00 0.00 0.00 0.000
10/31/2014 12:58:14a 336 0 1 33 80 78.4 59.2 29.98 1.00 0.0 0 0.00 0.00 0.00 0.000
10/31/2014 12:59:14a 336 0 1 33 80 78.4 59.2 29.98 1.00 0.0 0 0.00 0.00 0.00 0.000
10/31/2014 1:00:14a 336 0 1 33 80 78.4 59.2 29.98 1.00 0.0 0 0.00 0.00 0.00 0.000
10/31/2014 1:01:14a 336 0 2 33 80 78.4 59.1 29.98 1.00 0.0 0 0.00 0.00 0.00 0.000
10/31/2014 1:02:15a 336 1 2 33 80 78.4 59.0 29.98 1.00 0.0 0 0.00 0.00 0.00 0.000
10/31/2014 1:03:15a 336 0 2 33 79 78.4 59.0 29.98 1.00 0.0 0 0.00 0.00 0.00 0.000
10/31/2014 1:04:15a 336 2 4 33 79 78.4 59.0 29.97 1.00 0.0 0 0.00 0.00 0.00 0.000
10/31/2014 1:05:15a 336 3 4 33 79 78.4 59.0 29.97 1.00 0.0 0 0.00 0.00 0.00 0.000
10/31/2014 1:06:15a 336 3 4 33 79 78.2 58.9 29.98 1.00 0.0 0 0.00 0.00 0.00 0.000
10/31/2014 1:07:15a 336 3 4 33 79 78.2 58.8 29.98 1.00 0.0 0 0.00 0.00 0.00 0.000
10/31/2014 1:08:15a 336 3 4 33 79 78.2 58.7 29.98 1.00 0.0 0 0.00 0.00 0.00 0.000
10/31/2014 1:09:15a 336 2 4 33 78 78.2 58.7 29.97 1.00 0.0 0 0.00 0.00 0.00 0.000
10/31/2014 1:10:15a 336 3 4 33 78 78.2 58.7 29.97 1.00 0.0 0 0.00 0.00 0.00 0.000
10/31/2014 1:11:15a 336 2 4 33 78 78.2 58.8 29.98 1.00 0.0 0 0.00 0.00 0.00 0.000
10/31/2014 1:12:15a 336 3 4 33 78 78.2 58.9 29.98 1.00 0.0 0 0.00 0.00 0.00 0.000
10/31/2014 1:13:15a 336 2 4 33 78 78.2 59.0 29.98 1.00 0.0 0 0.00 0.00 0.00 0.000
10/31/2014 1:14:15a 336 2 4 33 78 78.2 59.0 29.98 1.00 0.0 0 0.00 0.00 0.00 0.000
10/31/2014 1:15:15a 336 3 4 33 78 78.1 59.1 29.98 1.00 0.0 0 0.00 0.00 0.00 0.000
10/31/2014 1:16:15a 336 2 4 33 78 78.1 59.1 29.98 1.00 0.0 0 0.00 0.00 0.00 0.000
10/31/2014 1:17:15a 336 3 4 33 78 78.1 59.1 29.98 1.00 0.0 0 0.00 0.00 0.00 0.000
10/31/2014 1:18:16a 336 2 4 33 77 78.1 59.0 29.98 1.00 0.0 0 0.00 0.00 0.00 0.000
10/31/2014 1:19:16a 336 3 3 33 77 78.1 59.0 29.98 1.00 0.0 0 0.00 0.00 0.00 0.000
10/31/2014 1:20:16a 336 3 3 33 77 78.1 58.8 29.98 1.00 0.0 0 0.00 0.00 0.00 0.000
10/31/2014 1:21:16a 336 3 3 33 76 78.1 58.7 29.98 1.00 0.0 0 0.00 0.00 0.00 0.000
10/31/2014 1:22:16a 336 3 4 33 76 78.1 58.6 29.98 1.00 0.0 0 0.00 0.00 0.00 0.000
10/31/2014 1:23:16a 336 3 4 33 76 77.9 58.5 29.98 1.00 0.0 0 0.00 0.00 0.00 0.000
10/31/2014 1:24:16a 336 2 4 33 75 77.9 58.5 29.98 1.00 0.0 0 0.00 0.00 0.00 0.000
10/31/2014 1:25:16a 336 0 4 33 75 77.9 58.5 29.98 1.00 0.0 0 0.00 0.00 0.00 0.000
10/31/2014 1:26:16a 336 1 4 33 75 77.9 58.5 29.98 1.00 0.0 0 0.00 0.00 0.00 0.000
10/31/2014 1:27:16a 336 0 4 33 75 77.9 58.6 29.98 1.00 0.0 0 0.00 0.00 0.00 0.000
10/31/2014 1:28:16a 336 0 4 33 75 77.9 58.7 29.98 1.00 0.0 0 0.00 0.00 0.00 0.000
10/31/2014 1:29:16a 336 0 4 33 75 77.9 58.8 29.98 1.00 0.0 0 0.00 0.00 0.00 0.000
10/31/2014 1:30:16a 336 0 4 33 74 77.9 58.8 29.98 1.00 0.0 0 0.00 0.00 0.00 0.000
10/31/2014 1:31:17a 336 0 4 33 74 77.9 58.9 29.98 1.00 0.0 0 0.00 0.00 0.00 0.000
10/31/2014 1:32:17a 336 2 4 33 74 77.7 58.9 29.98 1.00 0.0 0 0.00 0.00 0.00 0.000
10/31/2014 1:33:17a 336 2 4 33 74 77.7 59.0 29.98 1.00 0.0 0 0.00 0.00 0.00 0.000
10/31/2014 1:34:17a 336 0 2 33 74 77.7 59.0 29.98 1.00 0.0 0 0.00 0.00 0.00 0.000
10/31/2014 1:35:17a 336 2 3 33 73 77.7 59.0 29.98 1.00 0.0 0 0.00 0.00 0.00 0.000
10/31/2014 1:36:41a 336 3 3 33 73 77.7 59.0 29.98 1.00 0.0 0 0.00 0.00 0.00 0.000
10/31/2014 1:37:41a 336 3 4 33 73 77.7 58.9 29.98 1.00 0.0 0 0.00 0.00 0.00 0.000
10/31/2014 1:38:41a 336 2 4 33 72 77.7 58.9 29.98 1.00 0.0 0 0.00 0.00 0.00 0.000
10/31/2014 1:39:41a 336 3 4 33 72 77.7 58.9 29.98 1.00 0.0 0 0.00 0.00 0.00 0.000
10/31/2014 1:40:41a 336 1 4 33 72 77.5 58.9 29.98 1.00 0.0 0 0.00 0.00 0.00 0.000
10/31/2014 1:41:41a 336 4 4 33 72 77.5 58.9 29.98 1.00 0.0 0 0.00 0.00 0.00 0.000
10/31/2014 1:42:41a 336 3 4 33 72 77.5 58.9 29.98 1.00 0.0 0 0.00 0.00 0.00 0.000
10/31/2014 1:43:41a 336 3 4 33 71 77.5 58.9 29.98 1.00 0.0 0 0.00 0.00 0.00 0.000
10/31/2014 1:44:41a 336 3 4 33 71 77.5 58.9 29.98 1.00 0.0 0 0.00 0.00 0.00 0.000
10/31/2014 1:45:42a 336 1 4 33 71 77.5 58.9 29.98 1.00 0.0 0 0.00 0.00 0.00 0.000
10/31/2014 1:46:42a 336 0 4 33 71 77.5 58.9 29.98 1.00 0.0 0 0.00 0.00 0.00 0.000
10/31/2014 1:47:42a 336 0 4 33 71 77.5 59.0 29.98 1.00 0.0 0 0.00 0.00 0.00 0.000
10/31/2014 1:48:42a 336 0 0 33 71 77.5 58.9 29.98 1.00 0.0 0 0.00 0.00 0.00 0.000
10/31/2014 1:49:42a 336 0 0 33 71 77.3 59.0 29.98 1.00 0.0 0 0.00 0.00 0.00 0.000
10/31/2014 1:50:43a 336 0 0 33 70 77.3 59.0 29.98 1.00 0.0 0 0.00 0.00 0.00 0.000
10/31/2014 1:51:43a 336 0 0 33 70 77.3 58.9 29.98 1.00 0.0 0 0.00 0.00 0.00 0.000
10/31/2014 1:52:43a 336 0 0 33 70 77.3 58.9 29.98 1.00 0.0 0 0.00 0.00 0.00 0.000
10/31/2014 1:53:43a 336 0 0 33 70 77.3 58.9 29.98 1.00 0.0 0 0.00 0.00 0.00 0.000
10/31/2014 1:54:43a 336 0 2 33 70 77.3 59.0 29.98 1.00 0.0 0 0.00 0.00 0.00 0.000
10/31/2014 1:55:43a 336 0 2 33 70 77.3 59.0 29.98 1.00 0.0 0 0.00 0.00 0.00 0.000
10/31/2014 1:56:43a 336 0 2 33 70 77.3 59.1 29.98 1.00 0.0 0 0.00 0.00 0.00 0.000
10/31/2014 1:58:01a 336 0 2 33 70 77.3 59.1 29.98 1.00 0.0 0 0.00 0.00 0.00 0.000
10/31/2014 1:59:01a 336 0 2 33 70 77.2 59.1 29.98 1.00 0.0 0 0.00 0.00 0.00 0.000
10/31/2014 2:00:01a 336 0 2 33 70 77.2 59.1 29.98 1.00 0.0 0 0.00 0.00 0.00 0.000
10/31/2014 2:01:01a 336 0 2 33 70 77.2 59.0 29.98 1.00 0.0 0 0.00 0.00 0.00 0.000
10/31/2014 2:02:01a 336 0 2 33 70 77.2 59.0 29.98 1.00 0.0 0 0.00 0.00 0.00 0.000
10/31/2014 2:03:02a 336 0 2 33 70 77.2 58.9 29.98 1.00 0.0 0 0.00 0.00 0.00 0.000
10/31/2014 2:04:02a 336 0 0 33 70 77.2 58.8 29.98 1.00 0.0 0 0.00 0.00 0.00 0.000
10/31/2014 2:05:05a 336 0 0 33 70 77.2 58.7 29.98 1.00 0.0 0 0.00 0.00 0.00 0.000
10/31/2014 2:06:05a 336 0 0 33 70 77.2 58.7 29.98 1.00 0.0 0 0.00 0.00 0.00 0.000
10/31/2014 2:07:05a 336 0 0 33 70 77.2 58.6 29.98 1.00 0.0 0 0.00 0.00 0.00 0.000
10/31/2014 2:08:05a 336 0 0 33 70 77.0 58.5 29.98 1.00 0.0 0 0.00 0.00 0.00 0.000
10/31/2014 2:09:05a 336 0 0 33 70 77.0 58.4 29.98 1.00 0.0 0 0.00 0.00 0.00 0.000
10/31/2014 2:10:05a 336 0 0 33 70 77.0 58.3 29.98 1.00 0.0 0 0.00 0.00 0.00 0.000
10/31/2014 2:11:05a 336 0 0 33 71 77.0 58.3 29.98 1.00 0.0 0 0.00 0.00 0.00 0.000
10/31/2014 2:12:05a 336 0 0 33 71 77.0 58.3 29.98 1.00 0.0 0 0.00 0.00 0.00 0.000
10/31/2014 2:13:05a 336 0 0 33 71 77.0 58.3 29.98 1.00 0.0 0 0.00 0.00 0.00 0.000
10/31/2014 2:14:05a 336 0 0 33 71 77.0 58.2 29.98 1.00 0.0 0 0.00 0.00 0.00 0.000
10/31/2014 2:15:05a 336 0 0 33 71 77.0 58.1 29.98 1.00 0.0 0 0.00 0.00 0.00 0.000
10/31/2014 2:16:05a 335 0 0 33 71 77.0 58.1 29.98 1.00 0.0 0 0.00 0.00 0.00 0.000
10/31/2014 2:17:06a 336 0 0 33 71 76.8 58.0 29.98 1.00 0.0 0 0.00 0.00 0.00 0.000
10/31/2014 2:18:15a 336 0 0 33 71 76.8 57.9 29.98 1.00 0.0 0 0.00 0.00 0.00 0.000
10/31/2014 2:19:15a 336 0 0 33 71 76.8 57.9 29.98 1.00 0.0 0 0.00 0.00 0.00 0.000
10/31/2014 2:20:15a 336 0 0 33 71 76.8 57.8 29.98 1.00 0.0 0 0.00 0.00 0.00 0.000
10/31/2014 2:21:15a 336 0 0 33 71 76.8 57.8 29.98 1.00 0.0 0 0.00 0.00 0.00 0.000
10/31/2014 2:22:15a 336 0 0 33 71 76.8 57.8 29.98 1.00 0.0 0 0.00 0.00 0.00 0.000
10/31/2014 2:23:15a 336 0 0 33 72 76.8 57.7 29.98 1.00 0.0 0 0.00 0.00 0.00 0.000
10/31/2014 2:24:15a 336 0 0 33 72 76.8 57.6 29.98 1.00 0.0 0 0.00 0.00 0.00 0.000
10/31/2014 2:25:15a 336 0 0 33 72 76.6 57.6 29.98 1.00 0.0 0 0.00 0.00 0.00 0.000
10/31/2014 2:26:15a 336 0 0 33 72 76.6 57.5 29.98 1.00 0.0 0 0.00 0.00 0.00 0.000
10/31/2014 2:27:15a 336 0 0 33 72 76.6 57.5 29.98 1.00 0.0 0 0.00 0.00 0.00 0.000
10/31/2014 2:28:16a 336 0 0 33 72 76.6 57.5 29.98 1.00 0.0 0 0.00 0.00 0.00 0.000
10/31/2014 2:29:16a 336 0 0 33 74 76.6 57.5 29.98 1.00 0.0 0 0.00 0.00 0.00 0.000
10/31/2014 2:30:16a 336 0 0 33 72 76.6 57.5 29.98 1.00 0.0 0 0.00 0.00 0.00 0.000
10/31/2014 2:31:16a 336 0 0 33 72 76.6 57.5 29.98 1.00 0.0 0 0.00 0.00 0.00 0.000
10/31/2014 2:32:16a 336 0 0 33 72 76.6 57.5 29.98 1.00 0.0 0 0.00 0.00 0.00 0.000
10/31/2014 2:33:16a 336 1 2 33 72 76.6 57.5 29.99 1.00 0.0 0 0.00 0.00 0.00 0.000
10/31/2014 2:34:16a 336 1 2 33 73 76.6 57.5 29.98 1.00 0.0 0 0.00 0.00 0.00 0.000
10/31/2014 2:35:16a 336 1 2 33 73 76.5 57.6 29.98 1.00 0.0 0 0.00 0.00 0.00 0.000
10/31/2014 2:36:16a 336 2 2 33 73 76.5 57.6 29.99 1.00 0.0 0 0.00 0.00 0.00 0.000
10/31/2014 2:37:16a 336 2 3 33 73 76.5 57.6 29.99 1.00 0.0 0 0.00 0.00 0.00 0.000
10/31/2014 2:38:16a 336 2 3 33 73 76.5 57.7 29.98 1.00 0.0 0 0.00 0.00 0.00 0.000
10/31/2014 2:39:16a 336 2 3 33 73 76.5 57.8 29.99 1.00 0.0 0 0.00 0.00 0.00 0.000
10/31/2014 2:40:16a 336 0 3 33 73 76.5 57.8 29.99 1.00 0.0 0 0.00 0.00 0.00 0.000
10/31/2014 2:41:17a 336 0 3 33 73 76.5 57.9 29.98 1.00 0.0 0 0.00 0.00 0.00 0.000
10/31/2014 2:42:17a 336 0 3 33 73 76.5 57.9 29.99 1.00 0.0 0 0.00 0.00 0.00 0.000
10/31/2014 2:43:17a 336 0 3 33 74 76.3 57.9 29.99 1.00 0.0 0 0.00 0.00 0.00 0.000
10/31/2014 2:44:17a 336 0 3 33 74 76.3 58.0 29.99 1.00 0.0 0 0.00 0.00 0.00 0.000
10/31/2014 2:45:20a 336 0 3 33 74 76.3 58.0 29.99 1.00 0.0 0 0.00 0.00 0.00 0.000
10/31/2014 2:46:23a 336 0 3 33 74 76.3 58.1 29.99 1.00 0.0 0 0.00 0.00 0.00 0.000
10/31/2014 2:47:23a 336 0 3 33 74 76.3 58.1 29.99 1.00 0.0 0 0.00 0.00 0.00 0.000
10/31/2014 2:48:23a 336 0 0 33 74 76.3 58.1 29.99 1.00 0.0 0 0.00 0.00 0.00 0.000
10/31/2014 2:49:23a 336 0 0 33 74 76.3 58.1 29.99 1.00 0.0 0 0.00 0.00 0.00 0.000
10/31/2014 2:50:23a 336 0 0 33 74 76.3 58.0 29.99 1.00 0.0 0 0.00 0.00 0.00 0.000
10/31/2014 2:51:23a 336 0 0 33 74 76.1 58.0 29.99 1.00 0.0 0 0.00 0.00 0.00 0.000
10/31/2014 2:52:23a 336 0 0 33 74 76.1 57.9 29.99 1.00 0.0 0 0.00 0.00 0.00 0.000
10/31/2014 2:53:23a 336 0 0 33 73 76.1 57.8 29.99 1.00 0.0 0 0.00 0.00 0.00 0.000
10/31/2014 2:54:24a 336 0 0 33 73 76.1 57.6 29.99 1.00 0.0 0 0.00 0.00 0.00 0.000
10/31/2014 2:55:24a 336 0 0 33 73 76.1 57.5 29.99 1.00 0.0 0 0.00 0.00 0.00 0.000
10/31/2014 2:56:24a 336 0 0 33 74 76.1 57.4 29.99 1.00 0.0 0 0.00 0.00 0.00 0.000
10/31/2014 2:57:24a 336 0 0 33 74 76.1 57.3 29.99 1.00 0.0 0 0.00 0.00 0.00 0.000
10/31/2014 2:58:24a 336 0 0 33 74 76.1 57.2 29.99 1.00 0.0 0 0.00 0.00 0.00 0.000
10/31/2014 2:59:24a 336 0 0 33 74 76.1 57.2 29.99 1.00 0.0 0 0.00 0.00 0.00 0.000
10/31/2014 3:00:24a 336 0 0 33 74 75.9 57.3 29.99 1.00 0.0 0 0.00 0.00 0.00 0.000
10/31/2014 3:01:24a 336 1 1 33 75 75.9 57.3 29.99 1.00 0.0 0 0.00 0.00 0.00 0.000
10/31/2014 3:02:24a 336 1 2 33 75 75.9 57.5 29.99 1.00 0.0 0 0.00 0.00 0.00 0.000
10/31/2014 3:03:24a 336 0 3 33 76 75.9 57.7 29.99 1.00 0.0 0 0.00 0.00 0.00 0.000
10/31/2014 3:04:24a 336 0 1 33 77 75.9 58.0 29.98 1.00 0.0 0 0.00 0.00 0.00 0.000
10/31/2014 3:05:24a 336 1 1 33 77 75.9 58.2 29.98 1.00 0.0 0 0.00 0.00 0.00 0.000
10/31/2014 3:06:24a 336 0 1 33 77 75.9 58.4 29.98 1.00 0.0 0 0.00 0.00 0.00 0.000
10/31/2014 3:07:25a 336 0 1 33 78 75.9 58.5 29.98 1.00 0.0 0 0.00 0.00 0.00 0.000
10/31/2014 3:08:25a 336 0 1 33 78 75.9 58.6 29.98 1.00 0.0 0 0.00 0.00 0.00 0.000
10/31/2014 3:09:25a 336 0 2 33 78 75.8 58.7 29.98 1.00 0.0 0 0.00 0.00 0.00 0.000
10/31/2014 3:10:25a 336 0 2 33 78 75.8 58.8 29.98 1.00 0.0 0 0.00 0.00 0.00 0.000
10/31/2014 3:11:25a 336 0 2 33 78 75.8 58.9 29.98 1.00 0.0 0 0.00 0.00 0.00 0.000
10/31/2014 3:12:25a 336 0 2 33 78 75.8 58.9 29.98 1.00 0.0 0 0.00 0.00 0.00 0.000
10/31/2014 3:13:25a 336 0 2 33 79 75.8 58.9 29.98 1.00 0.0 0 0.00 0.00 0.00 0.000
10/31/2014 3:14:25a 336 0 2 33 79 75.8 58.9 29.98 1.00 0.0 0 0.00 0.00 0.00 0.000
10/31/2014 3:15:25a 336 0 2 33 79 75.8 58.9 29.98 1.00 0.0 0 0.00 0.00 0.00 0.000
10/31/2014 3:16:25a 336 0 2 33 79 75.8 58.9 29.98 1.00 0.0 0 0.00 0.00 0.00 0.000
10/31/2014 3:17:25a 336 0 2 33 79 75.8 58.9 29.98 1.00 0.0 0 0.00 0.00 0.00 0.000
10/31/2014 3:18:25a 336 0 0 33 79 75.6 58.8 29.98 1.00 0.0 0 0.00 0.00 0.00 0.000
10/31/2014 3:19:25a 336 0 1 33 79 75.6 58.7 29.98 1.00 0.0 0 0.00 0.00 0.00 0.000
10/31/2014 3:20:25a 336 0 1 33 79 75.6 58.7 29.98 1.00 0.0 0 0.00 0.00 0.00 0.000
10/31/2014 3:21:25a 336 1 1 33 79 75.6 58.6 29.98 1.00 0.0 0 0.00 0.00 0.00 0.000
10/31/2014 3:22:26a 336 1 1 33 79 75.6 58.5 29.98 1.00 0.0 0 0.00 0.00 0.00 0.000
10/31/2014 3:23:26a 336 1 1 33 79 75.6 58.5 29.98 1.00 0.0 0 0.00 0.00 0.00 0.000
10/31/2014 3:24:26a 336 0 1 33 79 75.6 58.4 29.97 1.00 0.0 0 0.00 0.00 0.00 0.000
10/31/2014 3:25:26a 336 0 1 33 79 75.6 58.3 29.97 1.00 0.0 0 0.00 0.00 0.00 0.000
10/31/2014 3:26:26a 336 0 1 33 79 75.6 58.3 29.97 1.00 0.0 0 0.00 0.00 0.00 0.000
10/31/2014 3:27:26a 336 0 1 33 79 75.4 58.3 29.97 1.00 0.0 0 0.00 0.00 0.00 0.000
10/31/2014 3:28:26a 336 1 1 33 79 75.4 58.2 29.97 1.00 0.0 0 0.00 0.00 0.00 0.000
10/31/2014 3:29:26a 336 0 1 33 79 75.4 58.2 29.97 1.00 0.0 0 0.00 0.00 0.00 0.000
10/31/2014 3:30:26a 336 0 1 33 79 75.4 58.2 29.97 1.00 0.0 0 0.00 0.00 0.00 0.000
10/31/2014 3:31:26a 336 0 1 33 79 75.4 58.1 29.97 1.00 0.0 0 0.00 0.00 0.00 0.000
10/31/2014 3:32:26a 336 0 1 33 79 75.4 58.1 29.97 1.00 0.0 0 0.00 0.00 0.00 0.000
10/31/2014 3:33:26a 336 0 0 33 79 75.4 58.0 29.98 1.00 0.0 0 0.00 0.00 0.00 0.000
10/31/2014 3:34:26a 336 0 0 33 79 75.4 57.9 29.97 1.00 0.0 0 0.00 0.00 0.00 0.000
10/31/2014 3:35:26a 336 0 0 33 79 75.4 57.9 29.97 1.00 0.0 0 0.00 0.00 0.00 0.000
10/31/2014 3:36:26a 336 0 0 33 79 75.2 57.8 29.97 1.00 0.0 0 0.00 0.00 0.00 0.000
10/31/2014 3:37:26a 336 0 0 33 79 75.2 57.8 29.97 1.00 0.0 0 0.00 0.00 0.00 0.000
10/31/2014 3:38:27a 336 0 0 33 79 75.2 57.7 29.97 1.00 0.0 0 0.00 0.00 0.00 0.000
10/31/2014 3:39:27a 336 0 0 33 79 75.2 57.6 29.97 1.00 0.0 0 0.00 0.00 0.00 0.000
10/31/2014 3:40:27a 336 0 0 33 79 75.2 57.5 29.97 1.00 0.0 0 0.00 0.00 0.00 0.000
10/31/2014 3:41:27a 336 0 0 33 79 75.2 57.4 29.98 1.00 0.0 0 0.00 0.00 0.00 0.000
10/31/2014 3:42:27a 336 0 0 33 79 75.2 57.4 29.97 1.00 0.0 0 0.00 0.00 0.00 0.000
10/31/2014 3:43:27a 336 0 0 33 80 75.2 57.4 29.98 1.00 0.0 0 0.00 0.00 0.00 0.000
10/31/2014 3:44:27a 336 0 0 33 80 75.2 57.3 29.98 1.00 0.0 0 0.00 0.00 0.00 0.000
10/31/2014 3:45:27a 336 0 0 33 80 75.2 57.2 29.98 1.00 0.0 0 0.00 0.00 0.00 0.000
10/31/2014 3:46:27a 336 1 1 33 79 75.2 57.1 29.98 1.00 0.0 0 0.00 0.00 0.00 0.000
10/31/2014 3:47:27a 336 0 1 33 79 75.1 57.0 29.97 1.00 0.0 0 0.00 0.00 0.00 0.000
10/31/2014 3:48:27a 336 0 0 33 79 75.1 56.8 29.97 1.00 0.0 0 0.00 0.00 0.00 0.000
10/31/2014 3:49:28a 336 0 0 33 79 75.1 56.7 29.97 1.00 0.0 0 0.00 0.00 0.00 0.000
10/31/2014 3:50:46a 336 0 0 33 79 75.1 56.5 29.97 1.00 0.0 0 0.00 0.00 0.00 0.000
10/31/2014 3:51:46a 336 0 0 33 79 75.1 56.4 29.97 1.00 0.0 0 0.00 0.00 0.00 0.000
10/31/2014 3:52:46a 336 0 1 33 79 75.1 56.2 29.97 1.00 0.0 0 0.00 0.00 0.00 0.000
10/31/2014 3:53:46a 336 0 1 33 79 75.1 56.1 29.97 1.00 0.0 0 0.00 0.00 0.00 0.000
10/31/2014 3:54:46a 336 0 1 33 79 75.1 55.9 29.97 1.00 0.0 0 0.00 0.00 0.00 0.000
10/31/2014 3:55:46a 336 1 1 33 79 75.1 55.8 29.97 1.00 0.0 0 0.00 0.00 0.00 0.000
10/31/2014 3:56:47a 336 1 2 33 80 74.9 55.7 29.97 1.00 0.0 0 0.00 0.00 0.00 0.000
10/31/2014 3:57:47a 336 2 3 33 80 74.9 55.7 29.97 1.00 0.0 0 0.00 0.00 0.00 0.000
10/31/2014 3:58:47a 336 2 3 33 80 74.9 55.6 29.97 1.00 0.0 0 0.00 0.00 0.00 0.000
10/31/2014 3:59:47a 336 2 3 33 80 74.9 55.6 29.97 1.00 0.0 0 0.00 0.00 0.00 0.000
10/31/2014 4:00:50a 336 1 3 33 80 74.9 55.4 29.97 1.00 0.0 0 0.00 0.00 0.00 0.000
10/31/2014 4:01:50a 336 1 3 33 80 74.9 55.2 29.98 1.00 0.0 0 0.00 0.00 0.00 0.000
10/31/2014 4:02:50a 336 0 3 33 80 74.9 55.0 29.98 1.00 0.0 0 0.00 0.00 0.00 0.000
10/31/2014 4:03:50a 336 0 1 33 80 74.9 54.9 29.98 1.00 0.0 0 0.00 0.00 0.00 0.000
10/31/2014 4:04:50a 336 0 1 33 80 74.9 54.8 29.98 1.00 0.0 0 0.00 0.00 0.00 0.000
10/31/2014 4:05:50a 336 0 1 33 80 74.9 54.8 29.98 1.00 0.0 0 0.00 0.00 0.00 0.000
10/31/2014 4:06:50a 336 0 1 33 81 74.7 54.9 29.98 1.00 0.0 0 0.00 0.00 0.00 0.000
10/31/2014 4:07:50a 336 0 1 33 81 74.7 54.9 29.98 1.00 0.0 0 0.00 0.00 0.00 0.000
10/31/2014 4:08:50a 336 0 1 33 81 74.7 55.0 29.98 1.00 0.0 0 0.00 0.00 0.00 0.000
10/31/2014 4:09:50a 336 0 1 33 81 74.7 55.1 29.98 1.00 0.0 0 0.00 0.00 0.00 0.000
10/31/2014 4:10:50a 336 0 1 33 82 74.7 55.2 29.98 1.00 0.0 0 0.00 0.00 0.00 0.000
10/31/2014 4:11:50a 336 0 1 33 82 74.7 55.3 29.98 1.00 0.0 0 0.00 0.00 0.00 0.000
10/31/2014 4:12:50a 336 0 1 33 82 74.7 55.4 29.98 1.00 0.0 0 0.00 0.00 0.00 0.000
10/31/2014 4:13:50a 336 0 1 33 82 74.7 55.6 29.98 1.00 0.0 0 0.00 0.00 0.00 0.000
10/31/2014 4:14:50a 336 0 1 33 82 74.7 55.6 29.98 1.00 0.0 0 0.00 0.00 0.00 0.000
10/31/2014 4:15:51a 336 0 1 33 82 74.7 55.7 29.98 1.00 0.0 0 0.00 0.00 0.00 0.000
10/31/2014 4:16:51a 336 0 1 33 82 74.7 55.7 29.98 1.00 0.0 0 0.00 0.00 0.00 0.000
10/31/2014 4:17:51a 336 0 1 33 82 74.5 55.7 29.98 1.00 0.0 0 0.00 0.00 0.00 0.000
10/31/2014 4:18:51a 336 0 0 33 82 74.5 55.7 29.98 1.00 0.0 0 0.00 0.00 0.00 0.000
10/31/2014 4:19:51a 336 0 0 33 82 74.5 55.7 29.99 1.00 0.0 0 0.00 0.00 0.00 0.000
10/31/2014 4:20:51a 336 0 0 33 82 74.5 55.7 29.98 1.00 0.0 0 0.00 0.00 0.00 0.000
10/31/2014 4:21:51a 336 0 0 33 82 74.5 55.7 29.99 1.00 0.0 0 0.00 0.00 0.00 0.000
10/31/2014 4:22:51a 336 0 0 33 82 74.5 55.8 29.99 1.00 0.0 0 0.00 0.00 0.00 0.000
10/31/2014 4:23:51a 336 0 0 33 82 74.5 55.8 29.99 1.00 0.0 0 0.00 0.00 0.00 0.000
10/31/2014 4:24:51a 336 0 0 33 83 74.5 55.8 29.99 1.00 0.0 0 0.00 0.00 0.00 0.000
10/31/2014 4:25:51a 336 0 0 33 83 74.5 55.8 29.99 1.00 0.0 0 0.00 0.00 0.00 0.000
10/31/2014 4:26:51a 336 0 0 33 83 74.5 55.7 29.99 1.00 0.0 0 0.00 0.00 0.00 0.000
10/31/2014 4:27:51a 336 0 0 33 83 74.4 55.8 29.99 1.00 0.0 0 0.00 0.00 0.00 0.000
10/31/2014 4:29:16a 336 0 0 33 83 74.4 55.8 29.99 1.00 0.0 0 0.00 0.00 0.00 0.000
10/31/2014 4:30:16a 336 0 0 33 83 74.4 55.8 29.98 1.00 0.0 0 0.00 0.00 0.00 0.000
10/31/2014 4:31:16a 336 0 0 33 83 74.4 55.8 29.99 1.00 0.0 0 0.00 0.00 0.00 0.000
10/31/2014 4:33:01a 336 0 0 33 83 74.4 55.7 29.98 1.00 0.0 0 0.00 0.00 0.00 0.000
10/31/2014 4:34:01a 336 0 0 33 83 74.4 55.7 29.98 1.00 0.0 0 0.00 0.00 0.00 0.000
10/31/2014 4:35:01a 336 0 0 33 83 74.4 55.7 29.98 1.00 0.0 0 0.00 0.00 0.00 0.000
10/31/2014 4:36:01a 336 0 0 33 83 74.4 55.7 29.98 1.00 0.0 0 0.00 0.00 0.00 0.000
10/31/2014 4:37:01a 336 0 0 33 83 74.4 55.7 29.98 1.00 0.0 0 0.00 0.00 0.00 0.000
10/31/2014 4:38:01a 336 0 0 33 83 74.2 55.7 29.98 1.00 0.0 0 0.00 0.00 0.00 0.000
10/31/2014 4:39:01a 336 0 0 33 83 74.2 55.7 29.98 1.00 0.0 0 0.00 0.00 0.00 0.000
10/31/2014 4:40:01a 336 0 0 33 83 74.2 55.7 29.98 1.00 0.0 0 0.00 0.00 0.00 0.000
10/31/2014 4:41:01a 336 0 0 33 83 74.2 55.7 29.98 1.00 0.0 0 0.00 0.00 0.00 0.000
10/31/2014 4:42:01a 336 0 0 33 83 74.2 55.8 29.98 1.00 0.0 0 0.00 0.00 0.00 0.000
10/31/2014 4:43:01a 336 0 0 33 83 74.2 55.8 29.98 1.00 0.0 0 0.00 0.00 0.00 0.000
10/31/2014 4:44:01a 336 0 0 33 83 74.2 55.8 29.98 1.00 0.0 0 0.00 0.00 0.00 0.000
10/31/2014 4:45:01a 336 0 0 33 83 74.2 55.9 29.98 1.00 0.0 0 0.00 0.00 0.00 0.000
10/31/2014 4:46:02a 336 0 0 33 84 74.2 55.9 29.98 1.00 0.0 0 0.00 0.00 0.00 0.000
10/31/2014 4:47:02a 336 0 0 33 84 74.2 55.9 29.98 1.00 0.0 0 0.00 0.00 0.00 0.000
10/31/2014 4:48:02a 336 0 0 33 84 74.0 55.8 29.98 1.00 0.0 0 0.00 0.00 0.00 0.000
10/31/2014 4:49:02a 336 0 0 33 84 74.0 55.8 29.98 1.00 0.0 0 0.00 0.00 0.00 0.000
10/31/2014 4:50:02a 336 0 0 33 84 74.0 55.8 29.98 1.00 0.0 0 0.00 0.00 0.00 0.000
10/31/2014 4:51:02a 336 0 0 33 84 74.0 55.8 29.98 1.00 0.0 0 0.00 0.00 0.00 0.000
10/31/2014 4:52:05a 336 0 0 33 84 74.0 55.7 29.98 1.00 0.0 0 0.00 0.00 0.00 0.000
10/31/2014 4:53:05a 336 0 0 33 84 74.0 55.6 29.98 1.00 0.0 0 0.00 0.00 0.00 0.000
10/31/2014 4:54:05a 336 0 0 33 84 74.0 55.6 29.98 1.00 0.0 0 0.00 0.00 0.00 0.000
10/31/2014 4:55:05a 336 2 2 33 84 74.0 55.5 29.98 1.00 0.0 0 0.00 0.00 0.00 0.000
10/31/2014 4:56:05a 336 2 3 33 83 74.0 55.3 29.98 1.00 0.0 0 0.00 0.00 0.00 0.000
10/31/2014 4:57:05a 336 2 3 33 83 74.0 55.2 29.98 1.00 0.0 0 0.00 0.00 0.00 0.000
10/31/2014 4:58:05a 336 2 3 33 83 73.9 54.9 29.98 1.00 0.0 0 0.00 0.00 0.00 0.000
10/31/2014 4:59:06a 336 2 3 33 83 73.9 54.8 29.98 1.00 0.0 0 0.00 0.00 0.00 0.000
10/31/2014 5:00:06a 336 2 3 33 83 73.9 54.7 29.98 1.00 0.0 0 0.00 0.00 0.00 0.000
10/31/2014 5:01:06a 336 1 3 33 83 73.9 54.6 29.98 1.00 0.0 0 0.00 0.00 0.00 0.000
10/31/2014 5:02:06a 336 1 3 33 83 73.9 54.5 29.98 1.00 0.0 0 0.00 0.00 0.00 0.000
10/31/2014 5:03:06a 336 1 3 33 83 73.9 54.5 29.98 1.00 0.0 0 0.00 0.00 0.00 0.000
10/31/2014 5:04:06a 336 0 1 33 83 73.9 54.5 29.99 1.00 0.0 0 0.00 0.00 0.00 0.000
10/31/2014 5:05:06a 336 0 1 33 84 73.9 54.6 29.99 1.00 0.0 0 0.00 0.00 0.00 0.000
10/31/2014 5:06:06a 336 1 1 33 84 73.9 54.6 29.99 1.00 0.0 0 0.00 0.00 0.00 0.000
10/31/2014 5:07:06a 336 0 1 33 84 73.9 54.6 29.99 1.00 0.0 0 0.00 0.00 0.00 0.000
10/31/2014 5:08:06a 336 1 1 33 84 73.7 54.7 29.99 1.00 0.0 0 0.00 0.00 0.00 0.000
10/31/2014 5:09:07a 336 1 2 33 84 73.7 54.7 29.99 1.00 0.0 0 0.00 0.00 0.00 0.000
10/31/2014 5:10:07a 336 0 2 33 84 73.7 54.8 29.99 1.00 0.0 0 0.00 0.00 0.00 0.000
10/31/2014 5:11:07a 336 0 2 33 84 73.7 54.9 29.99 1.00 0.0 0 0.00 0.00 0.00 0.000
10/31/2014 5:12:16a 336 0 2 33 84 73.7 55.0 29.99 1.00 0.0 0 0.00 0.00 0.00 0.000
10/31/2014 5:13:16a 336 0 2 33 84 73.7 55.1 29.99 1.00 0.0 0 0.00 0.00 0.00 0.000
10/31/2014 5:14:16a 336 0 2 33 84 73.7 55.1 29.99 1.00 0.0 0 0.00 0.00 0.00 0.000
10/31/2014 5:15:16a 336 1 2 33 84 73.7 55.2 29.99 1.00 0.0 0 0.00 0.00 0.00 0.000
10/31/2014 5:16:16a 336 0 2 33 84 73.7 55.2 29.99 1.00 0.0 0 0.00 0.00 0.00 0.000
10/31/2014 5:17:16a 336 0 2 33 84 73.7 55.1 29.99 1.00 0.0 0 0.00 0.00 0.00 0.000
10/31/2014 5:18:16a 336 0 2 33 84 73.5 55.2 29.99 1.00 0.0 0 0.00 0.00 0.00 0.000
10/31/2014 5:19:16a 336 0 0 33 84 73.5 55.2 29.99 1.00 0.0 0 0.00 0.00 0.00 0.000
10/31/2014 5:20:16a 336 0 0 33 84 73.5 55.2 29.99 1.00 0.0 0 0.00 0.00 0.00 0.000
10/31/2014 5:21:16a 336 0 0 33 84 73.5 55.2 29.99 1.00 0.0 0 0.00 0.00 0.00 0.000
10/31/2014 5:22:16a 336 0 1 33 84 73.5 55.1 29.99 1.00 0.0 0 0.00 0.00 0.00 0.000
10/31/2014 5:23:16a 336 1 1 33 84 73.5 55.1 29.99 1.00 0.0 0 0.00 0.00 0.00 0.000
10/31/2014 5:24:16a 336 0 1 33 84 73.5 54.9 29.99 1.00 0.0 0 0.00 0.00 0.00 0.000
10/31/2014 5:25:17a 336 0 1 33 84 73.5 54.8 29.99 1.00 0.0 0 0.00 0.00 0.00 0.000
10/31/2014 5:26:17a 336 0 1 33 84 73.5 54.7 29.99 1.00 0.0 0 0.00 0.00 0.00 0.000
10/31/2014 5:27:17a 336 0 1 33 83 73.5 54.5 29.99 1.00 0.0 0 0.00 0.00 0.00 0.000
10/31/2014 5:28:17a 336 0 1 33 83 73.3 54.5 29.99 1.00 0.0 0 0.00 0.00 0.00 0.000
10/31/2014 5:29:17a 336 0 1 33 83 73.3 54.5 29.99 1.00 0.0 0 0.00 0.00 0.00 0.000
10/31/2014 5:30:17a 336 0 1 33 83 73.3 54.5 29.99 1.00 0.0 0 0.00 0.00 0.00 0.000
10/31/2014 5:31:17a 336 0 1 33 84 73.3 54.6 29.99 1.00 0.0 0 0.00 0.00 0.00 0.000
10/31/2014 5:32:17a 336 0 1 33 84 73.3 54.7 29.99 1.00 0.0 0 0.00 0.00 0.00 0.000
10/31/2014 5:33:17a 336 0 1 33 84 73.3 54.8 29.99 1.00 0.0 0 0.00 0.00 0.00 0.000
10/31/2014 5:34:17a 336 0 0 33 84 73.3 54.9 29.99 1.00 0.0 0 0.00 0.00 0.00 0.000
10/31/2014 5:35:17a 336 0 0 33 84 73.3 54.9 29.99 1.00 0.0 0 0.00 0.00 0.00 0.000
10/31/2014 5:36:17a 336 0 0 33 84 73.3 54.9 29.99 1.00 0.0 0 0.00 0.00 0.00 0.000
10/31/2014 5:37:17a 336 0 0 33 84 73.3 55.0 29.99 1.00 0.0 0 0.00 0.00 0.00 0.000
10/31/2014 5:38:21a 336 0 0 33 84 73.2 54.9 29.99 1.00 0.0 0 0.00 0.00 0.00 0.000
10/31/2014 5:39:24a 336 0 0 33 84 73.2 54.9 29.99 1.00 0.0 0 0.00 0.00 0.00 0.000
10/31/2014 5:40:24a 336 2 2 33 84 73.2 54.8 29.99 1.00 0.0 0 0.00 0.00 0.00 0.000
10/31/2014 5:41:24a 336 2 2 33 84 73.2 54.7 29.99 1.00 0.0 0 0.00 0.00 0.00 0.000
10/31/2014 5:42:24a 336 0 2 33 84 73.2 54.7 29.99 1.00 0.0 0 0.00 0.00 0.00 0.000
10/31/2014 5:43:24a 336 0 2 33 84 73.2 54.7 29.99 1.00 0.0 0 0.00 0.00 0.00 0.000
10/31/2014 5:44:24a 336 0 2 33 84 73.2 54.7 29.99 1.00 0.0 0 0.00 0.00 0.00 0.000
10/31/2014 5:45:24a 336 0 2 33 84 73.2 54.6 29.99 1.00 0.0 0 0.00 0.00 0.00 0.000
10/31/2014 5:46:24a 336 0 2 33 84 73.2 54.6 29.99 1.00 0.0 0 0.00 0.00 0.00 0.000
10/31/2014 5:47:24a 336 0 2 33 84 73.2 54.6 29.99 1.00 0.0 0 0.00 0.00 0.00 0.000
10/31/2014 5:48:24a 336 0 0 33 84 73.0 54.5 29.99 1.00 0.0 0 0.00 0.00 0.00 0.000
10/31/2014 5:49:24a 336 0 0 33 84 73.0 54.5 29.99 1.00 0.0 0 0.00 0.00 0.00 0.000
10/31/2014 5:50:24a 336 1 2 33 84 73.0 54.5 29.99 1.00 0.0 0 0.00 0.00 0.00 0.000
10/31/2014 5:51:24a 336 1 2 33 84 73.0 54.5 29.99 1.00 0.0 0 0.00 0.00 0.00 0.000
10/31/2014 5:52:24a 336 2 2 33 84 73.0 54.4 29.99 1.00 0.0 0 0.00 0.00 0.00 0.000
10/31/2014 5:53:24a 336 0 2 33 84 73.0 54.3 29.99 1.00 0.0 0 0.00 0.00 0.00 0.000
10/31/2014 5:54:24a 336 1 2 33 83 73.0 54.2 29.99 1.00 0.0 0 0.00 0.00 0.00 0.000
10/31/2014 5:55:25a 336 0 2 33 83 73.0 54.1 29.99 1.00 0.0 0 0.00 0.00 0.00 0.000
10/31/2014 5:56:25a 336 0 2 33 84 73.0 54.1 29.99 1.00 0.0 0 0.00 0.00 0.00 0.000
10/31/2014 5:57:25a 336 0 2 33 84 72.8 54.0 29.99 1.00 0.0 0 0.00 0.00 0.00 0.000
10/31/2014 5:58:25a 336 0 2 33 84 72.8 54.0 29.99 1.00 0.0 0 0.00 0.00 0.00 0.000
10/31/2014 5:59:25a 336 0 2 33 84 72.8 53.9 29.99 1.00 0.0 0 0.00 0.00 0.00 0.000
10/31/2014 6:00:25a 336 0 2 33 84 72.8 53.9 29.99 1.00 0.0 0 0.00 0.00 0.00 0.000
10/31/2014 6:01:25a 336 0 2 33 84 72.8 53.9 29.99 1.00 0.0 0 0.00 0.00 0.00 0.000
10/31/2014 6:02:25a 336 0 2 33 84 72.8 53.9 29.99 1.00 0.0 0 0.00 0.00 0.00 0.000
10/31/2014 6:03:25a 336 0 0 33 84 72.8 53.9 30.00 1.00 0.0 0 0.00 0.00 0.00 0.000
10/31/2014 6:04:25a 336 0 0 33 84 72.8 53.9 29.99 1.00 0.0 0 0.00 0.00 0.00 0.000
10/31/2014 6:05:25a 336 0 0 33 84 72.8 53.9 30.00 1.00 0.0 0 0.00 0.00 0.00 0.000
10/31/2014 6:06:25a 336 0 0 33 84 72.8 54.0 30.00 1.00 0.0 0 0.00 0.00 0.00 0.000
10/31/2014 6:07:25a 336 0 0 33 84 72.8 54.1 29.99 1.00 0.0 0 0.00 0.00 0.00 0.000
10/31/2014 6:08:25a 336 0 0 33 84 72.7 54.1 29.99 1.00 0.0 0 0.00 0.00 0.00 0.000
10/31/2014 6:09:25a 336 0 0 33 84 72.7 54.1 29.99 1.00 0.0 0 0.00 0.00 0.00 0.000
10/31/2014 6:10:25a 336 0 0 33 84 72.7 54.1 29.99 1.00 0.0 0 0.00 0.00 0.00 0.000
10/31/2014 6:11:25a 336 0 0 33 84 72.7 54.2 29.99 1.00 0.0 0 0.00 0.00 0.00 0.000
10/31/2014 6:12:26a 336 1 1 33 84 72.7 54.2 29.99 1.00 0.0 0 0.00 0.00 0.00 0.000
10/31/2014 6:13:26a 336 1 1 33 85 72.7 54.2 29.99 1.00 0.0 0 0.00 0.00 0.00 0.000
10/31/2014 6:14:26a 336 1 1 33 85 72.7 54.3 29.99 1.00 0.0 0 0.00 0.00 0.00 0.000
10/31/2014 6:15:26a 336 1 1 33 85 72.7 54.3 30.00 1.00 0.0 0 0.00 0.00 0.00 0.000
10/31/2014 6:16:26a 336 0 1 33 85 72.7 54.4 30.00 1.00 0.0 0 0.00 0.00 0.00 0.000
10/31/2014 6:17:26a 336 0 1 33 85 72.7 54.4 30.00 1.00 0.0 0 0.00 0.00 0.00 0.000
10/31/2014 6:18:26a 336 0 0 33 85 72.7 54.4 30.00 1.00 0.0 0 0.00 0.00 0.00 0.000
10/31/2014 6:19:26a 336 0 0 33 85 72.7 54.4 30.00 1.00 0.0 0 0.00 0.00 0.00 0.000
10/31/2014 6:20:26a 336 0 2 33 85 72.5 54.4 30.00 1.00 0.0 0 0.00 0.00 0.00 0.000
10/31/2014 6:21:26a 336 0 2 33 85 72.5 54.3 30.00 1.00 0.0 0 0.00 0.00 0.00 0.000
10/31/2014 6:22:26a 336 1 2 33 85 72.5 54.3 30.00 1.00 0.0 0 0.00 0.00 0.00 0.000
10/31/2014 6:23:26a 336 0 2 33 85 72.5 54.2 30.00 1.00 0.0 0 0.00 0.00 0.00 0.000
10/31/2014 6:24:26a 336 0 2 33 85 72.5 54.2 30.00 1.00 0.0 0 0.00 0.00 0.00 0.000
10/31/2014 6:25:26a 336 1 2 33 85 72.5 54.2 30.00 1.00 0.0 0 0.00 0.00 0.00 0.000
10/31/2014 6:26:26a 336 2 2 33 85 72.5 54.2 30.00 1.00 0.0 0 0.00 0.00 0.00 0.000
10/31/2014 6:27:26a 336 2 2 33 85 72.5 54.3 30.00 1.00 0.0 0 0.00 0.00 0.00 0.000
10/31/2014 6:28:27a 336 1 2 33 85 72.5 54.3 30.00 1.00 0.0 0 0.00 0.00 0.00 0.000
10/31/2014 6:29:27a 336 2 3 33 85 72.5 54.3 30.00 1.00 0.0 0 0.00 0.00 0.00 0.000
10/31/2014 6:30:27a 336 1 3 33 85 72.5 54.4 30.00 1.00 0.0 0 0.00 0.00 0.00 0.000
10/31/2014 6:31:27a 336 1 3 33 85 72.5 54.4 30.00 1.00 0.0 0 0.00 0.00 0.00 0.000
10/31/2014 6:32:27a 336 1 3 33 85 72.3 54.5 30.00 1.00 0.0 0 0.00 0.00 0.00 0.000
10/31/2014 6:33:27a 336 0 0 32 85 72.3 54.5 30.00 1.00 0.0 0 0.00 0.00 0.00 0.000
10/31/2014 6:34:27a 336 0 0 32 85 72.3 54.6 30.00 1.00 0.0 0 0.00 0.00 0.00 0.000
10/31/2014 6:35:27a 336 0 1 32 85 72.3 54.5 30.00 1.00 0.0 0 0.00 0.00 0.00 0.000
10/31/2014 6:36:27a 336 1 1 32 85 72.3 54.5 30.00 1.00 0.0 0 0.00 0.00 0.00 0.000
10/31/2014 6:37:27a 336 1 1 32 85 72.3 54.5 30.00 1.00 0.0 0 0.00 0.00 0.00 0.000
10/31/2014 6:38:27a 336 1 2 32 85 72.3 54.6 30.00 1.00 0.0 0 0.00 0.00 0.00 0.000
10/31/2014 6:39:27a 336 1 2 32 85 72.3 54.5 30.00 1.00 0.0 0 0.00 0.00 0.00 0.000
10/31/2014 6:40:27a 336 1 2 32 85 72.3 54.5 30.00 1.00 0.0 0 0.00 0.00 0.00 0.000
10/31/2014 6:41:27a 336 2 2 32 85 72.3 54.5 30.00 1.00 0.0 0 0.00 0.00 0.00 0.000
10/31/2014 6:42:27a 336 1 2 32 85 72.3 54.4 30.00 1.00 0.0 0 0.00 0.00 0.00 0.000
10/31/2014 6:43:27a 336 1 2 32 85 72.3 54.4 30.00 1.00 0.0 0 0.00 0.00 0.00 0.000
10/31/2014 6:44:27a 336 2 3 32 85 72.3 54.4 30.00 1.00 0.0 0 0.00 0.00 0.00 0.000
10/31/2014 6:45:28a 336 1 3 32 85 72.1 54.4 30.01 1.00 0.0 0 0.00 0.00 0.00 0.000
10/31/2014 6:46:28a 336 2 3 32 85 72.1 54.4 30.00 1.00 0.0 0 0.00 0.00 0.00 0.000
10/31/2014 6:47:28a 336 2 3 32 85 72.1 54.4 30.01 1.00 0.0 0 0.00 0.00 0.00 0.000
10/31/2014 6:48:28a 336 1 1 32 85 72.1 54.4 30.01 1.00 0.0 0 0.00 0.00 0.00 0.000
10/31/2014 6:49:28a 336 1 2 32 85 72.1 54.3 30.01 1.00 0.0 0 0.00 0.00 0.00 0.000
10/31/2014 6:50:28a 336 2 2 32 85 72.1 54.3 30.01 1.00 0.0 0 0.00 0.00 0.00 0.000
10/31/2014 6:51:28a 336 2 3 32 85 72.1 54.2 30.00 1.00 0.0 0 0.00 0.00 0.00 0.000
10/31/2014 6:53:01a 336 3 4 32 85 72.1 54.1 30.01 1.00 0.0 0 0.00 0.00 0.00 0.000
10/31/2014 6:54:01a 336 2 4 32 85 72.1 54.0 30.01 1.00 0.0 0 0.00 0.00 0.00 0.000
10/31/2014 6:55:01a 336 3 4 32 85 72.1 54.0 30.00 1.00 0.0 0 0.00 0.00 0.00 0.000
10/31/2014 6:56:01a 336 2 4 32 85 72.1 53.9 30.01 1.00 0.0 0 0.00 0.00 0.00 0.000
10/31/2014 6:57:01a 336 1 4 32 85 72.1 54.0 30.01 1.00 0.0 0 0.00 0.00 0.00 0.000
10/31/2014 6:58:02a 336 2 4 32 85 72.1 54.0 30.01 1.00 0.0 0 0.00 0.00 0.00 0.000
10/31/2014 6:59:02a 336 1 4 32 85 72.1 54.0 30.01 1.00 0.0 0 0.00 0.00 0.00 0.000
10/31/2014 7:00:02a 336 0 4 32 85 72.1 54.1 30.01 1.00 0.0 0 0.00 0.00 0.00 0.000
10/31/2014 7:01:02a 336 0 4 32 85 72.1 54.1 30.01 1.00 0.0 0 0.00 0.00 0.00 0.000
10/31/2014 7:02:02a 336 0 4 32 85 72.1 54.2 30.01 1.00 0.0 0 0.00 0.00 0.00 0.000
10/31/2014 7:03:02a 336 0 4 32 85 72.1 54.2 30.01 1.00 0.0 0 0.00 0.00 0.00 0.000
10/31/2014 7:04:02a 336 0 0 32 85 72.1 54.3 30.01 1.00 0.0 0 0.00 0.00 0.00 0.000
10/31/2014 7:05:02a 336 0 0 32 85 72.1 54.3 30.01 1.00 0.0 0 0.00 0.00 0.00 0.000
10/31/2014 7:06:02a 336 0 0 33 85 72.0 54.4 30.01 1.00 0.0 0 0.00 0.00 0.00 0.000
10/31/2014 7:07:08a 336 0 0 33 85 72.0 54.5 30.01 1.00 0.0 0 0.00 0.00 0.00 0.000
10/31/2014 7:08:08a 336 0 0 33 85 72.0 54.6 30.01 1.00 0.0 0 0.00 0.00 0.00 0.000
10/31/2014 7:09:09a 336 0 0 33 85 72.0 54.7 30.01 1.00 0.0 0 0.00 0.00 0.00 0.000
10/31/2014 7:10:09a 336 0 0 33 86 72.0 54.8 30.01 1.00 0.0 0 0.00 0.00 0.00 0.000
10/31/2014 7:11:15a 336 0 0 33 85 72.0 54.9 30.01 1.00 0.0 0 0.00 0.00 0.00 0.000
10/31/2014 7:12:15a 336 0 0 33 85 72.0 55.0 30.01 1.00 0.0 0 0.00 0.00 0.00 0.000
10/31/2014 7:13:15a 336 0 0 33 85 72.0 55.1 30.01 1.00 0.0 0 0.00 0.00 0.00 0.000
10/31/2014 7:14:15a 336 0 0 33 86 72.0 55.1 30.01 1.00 0.0 0 0.00 0.00 0.00 0.000
10/31/2014 7:15:15a 336 0 0 33 86 72.0 55.3 30.01 1.00 0.0 0 0.00 0.00 0.00 0.000
10/31/2014 7:16:15a 336 0 0 33 86 72.0 55.3 30.01 1.00 0.0 0 0.00 0.00 0.00 0.000
10/31/2014 7:17:15a 336 0 0 33 86 72.0 55.4 30.01 1.00 0.0 0 0.00 0.00 0.00 0.000
10/31/2014 7:18:15a 336 0 0 33 86 72.0 55.4 30.01 1.00 0.0 0 0.00 0.00 0.00 0.000
10/31/2014 7:19:15a 336 0 0 33 86 71.8 55.4 30.01 1.00 0.0 0 0.00 0.00 0.00 0.000
10/31/2014 7:20:15a 336 0 0 33 86 71.8 55.5 30.01 1.00 0.0 0 0.00 0.00 0.00 0.000
10/31/2014 7:21:15a 336 0 0 33 86 71.8 55.6 30.01 1.00 0.0 0 0.00 0.00 0.00 0.000
10/31/2014 7:22:15a 336 0 0 33 86 71.8 55.6 30.01 1.00 0.0 0 0.00 0.00 0.00 0.000
10/31/2014 7:23:15a 336 0 0 33 86 71.8 55.6 30.01 1.00 0.0 5 0.00 0.00 0.00 0.000
10/31/2014 7:24:16a 336 0 0 33 85 71.8 55.7 30.01 1.00 0.0 5 0.00 0.00 0.00 0.000
10/31/2014 7:25:16a 336 0 0 33 85 71.8 55.7 30.01 1.00 0.0 5 0.00 0.00 0.00 0.000
10/31/2014 7:26:16a 336 0 0 33 85 71.8 55.8 30.01 1.00 0.0 5 0.00 0.00 0.00 0.000
10/31/2014 7:27:16a 336 0 0 33 85 71.8 55.8 30.01 1.00 0.0 5 0.00 0.00 0.00 0.000
10/31/2014 7:28:16a 336 0 0 33 85 71.8 55.8 30.01 1.00 0.0 5 0.00 0.00 0.00 0.000
10/31/2014 7:29:16a 336 0 0 33 85 71.8 55.9 30.01 1.00 0.0 5 0.00 0.00 0.00 0.000
10/31/2014 7:30:16a 336 0 0 33 85 71.8 55.9 30.01 1.00 0.0 5 0.00 0.00 0.00 0.000
10/31/2014 7:31:16a 336 0 0 33 86 71.8 55.9 30.01 1.00 0.0 5 0.00 0.00 0.00 0.000
10/31/2014 7:32:16a 336 0 0 33 86 71.8 56.0 30.01 1.00 0.0 5 0.00 0.00 0.00 0.000
10/31/2014 7:33:16a 336 0 0 33 86 71.8 56.0 30.02 1.00 0.0 5 0.00 0.00 0.00 0.000
10/31/2014 7:34:16a 336 0 0 33 86 71.8 56.1 30.02 1.00 0.0 5 0.00 0.00 0.00 0.000
10/31/2014 7:35:16a 336 0 0 33 85 71.6 56.2 30.02 1.00 0.0 5 0.00 0.00 0.00 0.000
10/31/2014 7:36:17a 336 0 0 33 85 71.6 56.2 30.02 1.00 0.0 5 0.00 0.00 0.00 0.000
10/31/2014 7:37:17a 336 0 0 33 85 71.6 56.3 30.02 1.00 0.0 5 0.00 0.00 0.00 0.000
10/31/2014 7:38:17a 336 0 0 33 85 71.6 56.3 30.02 1.00 0.0 5 0.00 0.00 0.00 0.000
10/31/2014 7:39:17a 336 0 0 33 85 71.6 56.4 30.02 1.00 0.0 5 0.00 0.00 0.00 0.000
10/31/2014 7:40:17a 336 0 0 33 85 71.6 56.4 30.02 1.00 0.0 5 0.00 0.00 0.00 0.000
10/31/2014 7:41:17a 336 0 0 33 85 71.6 56.5 30.02 1.00 0.0 5 0.00 0.00 0.00 0.000
10/31/2014 7:42:17a 336 0 0 33 85 71.6 56.5 30.02 1.00 0.0 5 0.00 0.00 0.00 0.000
10/31/2014 7:43:17a 336 0 0 33 85 71.6 56.5 30.02 1.00 0.0 7 0.00 0.00 0.00 0.000
10/31/2014 7:44:17a 336 0 0 33 85 71.6 56.6 30.02 1.00 0.0 7 0.00 0.00 0.00 0.000
10/31/2014 7:45:17a 336 0 0 33 85 71.6 56.6 30.02 1.00 0.0 7 0.00 0.00 0.00 0.000
10/31/2014 7:46:17a 336 0 0 33 85 71.6 56.7 30.02 1.00 0.0 7 0.00 0.00 0.00 0.000
10/31/2014 7:47:17a 336 0 0 33 85 71.6 56.7 30.02 1.00 0.0 7 0.00 0.00 0.00 0.000
10/31/2014 7:48:17a 336 0 0 33 85 71.6 56.8 30.02 1.00 0.0 7 0.00 0.00 0.00 0.000
10/31/2014 7:49:17a 336 0 0 33 85 71.6 56.9 30.02 1.00 0.0 7 0.00 0.00 0.00 0.000
10/31/2014 7:50:18a 336 0 0 33 85 71.6 56.9 30.02 1.00 0.0 7 0.00 0.00 0.00 0.000
10/31/2014 7:51:18a 336 0 0 33 85 71.6 57.0 30.02 1.00 0.0 7 0.00 0.00 0.00 0.000
10/31/2014 7:52:18a 336 0 0 33 85 71.6 57.0 30.02 1.00 0.0 7 0.00 0.00 0.00 0.000
10/31/2014 7:53:18a 336 0 0 33 85 71.6 57.1 30.02 1.00 0.0 9 0.00 0.00 0.00 0.000
10/31/2014 7:54:18a 336 0 0 33 85 71.6 57.1 30.02 1.00 0.0 9 0.00 0.00 0.00 0.000
10/31/2014 7:55:18a 336 0 0 33 85 71.6 57.1 30.02 1.00 0.0 9 0.00 0.00 0.00 0.000
10/31/2014 7:56:21a 336 0 0 33 85 71.6 57.2 30.02 1.00 0.0 9 0.00 0.00 0.00 0.000
10/31/2014 7:57:24a 336 0 0 33 85 71.6 57.2 30.02 1.00 0.0 9 0.00 0.00 0.00 0.000
10/31/2014 7:58:25a 336 0 0 33 84 71.6 57.2 30.02 1.00 0.0 9 0.00 0.00 0.00 0.000
10/31/2014 7:59:25a 336 0 0 33 84 71.6 57.3 30.02 1.00 0.0 9 0.00 0.00 0.00 0.000
10/31/2014 8:00:25a 336 0 0 33 84 71.6 57.4 30.02 1.00 0.0 9 0.00 0.00 0.00 0.000
10/31/2014 8:01:25a 336 0 0 33 84 71.6 57.4 30.02 1.00 0.0 9 0.00 0.00 0.00 0.000
10/31/2014 8:02:25a 336 0 0 33 84 71.6 57.4 30.02 1.00 0.0 9 0.00 0.00 0.00 0.000
10/31/2014 8:03:25a 336 0 0 33 84 71.6 57.4 30.03 1.00 0.0 11 0.00 0.00 0.00 0.000
10/31/2014 8:04:28a 336 0 0 33 84 71.5 57.5 30.03 1.00 0.0 11 0.00 0.00 0.00 0.000
10/31/2014 8:05:28a 336 0 0 33 84 71.5 57.5 30.03 1.00 0.0 11 0.00 0.00 0.00 0.000
10/31/2014 8:06:28a 336 0 0 33 84 71.5 57.6 30.03 1.00 0.0 11 0.00 0.00 0.00 0.000
10/31/2014 8:07:28a 336 0 0 34 84 71.5 57.6 30.03 1.00 0.0 12 0.00 0.00 0.00 0.000
10/31/2014 8:08:28a 336 0 1 34 84 71.5 57.7 30.03 1.00 0.0 14 0.00 0.00 0.00 0.000
10/31/2014 8:09:28a 336 1 2 34 84 71.5 57.7 30.03 1.00 0.0 14 0.00 0.00 0.00 0.000
10/31/2014 8:10:29a 336 1 2 34 84 71.5 57.7 30.03 1.00 0.0 14 0.00 0.00 0.00 0.000
10/31/2014 8:11:29a 336 0 2 34 84 71.5 57.8 30.03 1.00 0.0 16 0.00 0.00 0.00 0.000
10/31/2014 8:12:29a 336 2 2 34 84 71.5 57.8 30.03 1.00 0.0 16 0.00 0.00 0.00 0.000
10/31/2014 8:13:29a 336 1 2 34 84 71.5 57.8 30.03 1.00 0.0 16 0.00 0.00 0.00 0.000
10/31/2014 8:14:32a 336 1 2 34 84 71.5 57.8 30.03 1.00 0.0 16 0.00 0.00 0.00 0.000
10/31/2014 8:15:32a 336 0 2 34 84 71.6 57.8 30.03 1.00 0.0 16 0.00 0.00 0.00 0.000
10/31/2014 8:16:32a 336 0 2 34 84 71.6 57.8 30.03 1.00 0.0 18 0.00 0.00 0.00 0.000
10/31/2014 8:17:32a 336 0 2 34 84 71.6 57.8 30.03 1.00 0.0 18 0.00 0.00 0.00 0.000
10/31/2014 8:18:32a 336 0 0 34 84 71.6 57.8 30.03 1.00 0.0 18 0.00 0.00 0.00 0.000
10/31/2014 8:19:32a 336 0 0 34 84 71.6 57.8 30.03 1.00 0.0 19 0.00 0.00 0.00 0.000
10/31/2014 8:20:33a 336 0 1 34 84 71.6 57.8 30.03 1.00 0.0 19 0.00 0.00 0.00 0.000
10/31/2014 8:21:33a 336 0 1 34 84 71.6 57.8 30.03 1.00 0.0 21 0.00 0.00 0.00 0.000
10/31/2014 8:22:33a 336 0 1 34 84 71.6 57.8 30.03 1.00 0.0 21 0.00 0.00 0.00 0.000
10/31/2014 8:23:33a 336 0 1 34 84 71.6 57.8 30.03 1.00 0.0 21 0.00 0.00 0.00 0.000
10/31/2014 8:24:33a 336 0 1 34 84 71.6 57.8 30.03 1.00 0.0 23 0.00 0.00 0.00 0.000
10/31/2014 8:25:36a 336 0 1 35 84 71.6 57.7 30.03 1.00 0.0 21 0.00 0.00 0.00 0.000
10/31/2014 8:26:36a 336 0 1 35 84 71.6 57.7 30.03 1.00 0.0 21 0.00 0.00 0.00 0.000
10/31/2014 8:27:36a 336 0 1 35 84 71.6 57.7 30.03 1.00 0.0 21 0.00 0.00 0.00 0.000
10/31/2014 8:28:36a 336 0 1 35 84 71.6 57.6 30.03 1.00 0.0 21 0.00 0.00 0.00 0.000
10/31/2014 8:29:36a 336 0 1 35 84 71.6 57.6 30.03 1.00 0.0 23 0.00 0.00 0.00 0.000
10/31/2014 8:30:36a 336 0 1 35 84 71.6 57.7 30.03 1.00 0.0 25 0.00 0.00 0.00 0.000
10/31/2014 8:31:36a 336 0 1 35 84 71.6 57.6 30.03 1.00 0.0 26 0.00 0.00 0.00 0.000
10/31/2014 8:32:36a 336 0 1 35 84 71.6 57.7 30.03 1.00 0.0 26 0.00 0.00 0.00 0.000
10/31/2014 8:33:36a 336 0 0 35 84 71.8 57.8 30.03 1.00 0.0 26 0.00 0.00 0.00 0.000
10/31/2014 8:34:36a 336 0 0 35 84 71.8 57.8 30.03 1.00 0.0 26 0.00 0.00 0.00 0.000
10/31/2014 8:35:36a 336 0 0 35 84 71.8 57.8 30.03 1.00 0.0 25 0.00 0.00 0.00 0.000
10/31/2014 8:36:39a 336 0 1 35 84 71.8 57.8 30.03 1.00 0.0 23 0.00 0.00 0.00 0.000
10/31/2014 8:37:40a 336 0 1 35 84 71.8 57.8 30.03 1.00 0.0 23 0.00 0.00 0.00 0.000
10/31/2014 8:38:40a 336 0 1 35 84 71.8 57.8 30.03 1.00 0.0 23 0.00 0.00 0.00 0.000
10/31/2014 8:39:40a 336 0 1 35 84 71.8 57.7 30.03 1.00 0.0 23 0.00 0.00 0.00 0.000
10/31/2014 8:40:40a 336 0 1 35 84 71.8 57.7 30.03 1.00 0.0 25 0.00 0.00 0.00 0.000
10/31/2014 8:41:40a 336 0 1 35 84 71.8 57.7 30.03 1.00 0.0 25 0.00 0.00 0.00 0.000
10/31/2014 8:42:40a 336 0 1 35 84 71.8 57.7 30.03 1.00 0.0 26 0.00 0.00 0.00 0.000
10/31/2014 8:43:40a 336 0 1 35 84 71.8 57.6 30.03 1.00 0.0 25 0.00 0.00 0.00 0.000
10/31/2014 8:44:40a 336 0 1 35 84 71.8 57.6 30.03 1.00 0.0 25 0.00 0.00 0.00 0.000
10/31/2014 8:45:40a 336 0 1 35 84 72.0 57.6 30.03 1.00 0.0 25 0.00 0.00 0.00 0.000
10/31/2014 8:46:46a 336 0 1 35 84 72.0 57.6 30.03 1.00 0.0 25 0.00 0.00 0.00 0.000
10/31/2014 8:47:46a 336 0 1 36 84 72.0 57.6 30.03 1.00 0.0 26 0.00 0.00 0.00 0.000
10/31/2014 8:48:46a 336 0 1 36 84 72.0 57.6 30.04 1.00 0.0 26 0.00 0.00 0.00 0.000
10/31/2014 8:49:46a 336 0 1 36 84 72.0 57.6 30.04 1.00 0.0 26 0.00 0.00 0.00 0.000
10/31/2014 8:50:46a 336 0 1 36 84 72.0 57.5 30.04 1.00 0.0 26 0.00 0.00 0.00 0.000
10/31/2014 8:51:47a 336 1 1 36 84 72.0 57.5 30.04 1.00 0.0 28 0.00 0.00 0.00 0.000
10/31/2014 8:52:47a 336 0 1 36 84 72.0 57.5 30.04 1.00 0.0 28 0.00 0.00 0.00 0.000
10/31/2014 8:53:47a 336 0 1 36 84 72.0 57.5 30.04 1.00 0.0 30 0.00 0.00 0.00 0.000
10/31/2014 8:54:47a 336 1 2 36 84 72.0 57.6 30.04 1.00 0.0 32 0.00 0.00 0.00 0.000
10/31/2014 8:55:47a 336 0 2 36 84 72.1 57.6 30.04 1.00 0.0 33 0.00 0.00 0.00 0.000
10/31/2014 8:56:47a 336 0 2 36 84 72.1 57.6 30.04 1.00 0.0 35 0.00 0.00 0.00 0.000
10/31/2014 8:57:50a 336 0 2 36 84 72.1 57.6 30.04 1.00 0.0 37 0.00 0.00 0.00 0.000
10/31/2014 8:58:50a 336 0 2 36 84 72.1 57.6 30.04 1.00 0.0 37 0.00 0.00 0.00 0.000
10/31/2014 8:59:50a 336 1 2 36 84 72.1 57.7 30.04 1.00 0.0 37 0.00 0.00 0.00 0.000
10/31/2014 9:00:50a 336 0 2 36 84 72.1 57.7 30.04 1.00 0.0 35 0.00 0.00 0.00 0.000
10/31/2014 9:01:50a 336 0 2 36 84 72.1 57.8 30.04 1.00 0.0 35 0.00 0.00 0.00 0.000
10/31/2014 9:02:50a 336 0 2 36 84 72.1 57.8 30.04 1.00 0.0 33 0.00 0.00 0.00 0.000
10/31/2014 9:03:50a 336 0 0 36 84 72.1 57.9 30.04 1.00 0.0 33 0.00 0.00 0.00 0.000
10/31/2014 9:04:50a 336 0 0 36 84 72.1 58.0 30.04 1.00 0.0 35 0.00 0.00 0.00 0.000
10/31/2014 9:05:50a 336 0 0 36 84 72.1 58.0 30.04 1.00 0.0 37 0.00 0.00 0.00 0.000
10/31/2014 9:06:54a 336 0 0 36 84 72.3 58.0 30.04 1.00 0.0 39 0.00 0.00 0.00 0.000
10/31/2014 9:07:54a 336 0 0 36 84 72.3 58.1 30.04 1.00 0.0 39 0.00 0.00 0.00 0.000
10/31/2014 9:08:54a 336 0 0 36 84 72.3 58.2 30.04 1.00 0.0 39 0.00 0.00 0.00 0.000
10/31/2014 9:09:54a 336 0 0 36 84 72.3 58.2 30.04 1.00 0.0 39 0.00 0.00 0.00 0.000
10/31/2014 9:10:54a 336 0 0 36 84 72.3 58.2 30.04 1.00 0.0 39 0.00 0.00 0.00 0.000
10/31/2014 9:11:54a 336 0 0 36 84 72.3 58.2 30.04 1.00 0.0 40 0.00 0.00 0.00 0.000
10/31/2014 9:12:54a 336 0 0 36 84 72.3 58.2 30.04 1.00 0.0 40 0.00 0.00 0.00 0.000
10/31/2014 9:13:54a 336 0 0 36 84 72.3 58.2 30.04 1.00 0.0 42 0.00 0.00 0.00 0.000
10/31/2014 9:14:54a 336 0 0 36 84 72.3 58.2 30.05 1.00 0.0 46 0.00 0.00 0.00 0.000
10/31/2014 9:15:55a 336 0 0 36 84 72.3 58.2 30.04 1.00 0.0 51 0.00 0.00 0.00 0.000
10/31/2014 9:16:55a 336 0 0 36 84 72.5 58.1 30.04 1.00 0.0 53 0.00 0.00 0.00 0.000
10/31/2014 9:17:58a 336 0 0 36 84 72.5 58.1 30.04 1.00 0.0 54 0.00 0.00 0.00 0.000
10/31/2014 9:18:58a 336 0 0 36 84 72.5 58.2 30.04 1.00 0.0 54 0.00 0.00 0.00 0.000
10/31/2014 9:19:58a 336 0 0 37 84 72.5 58.1 30.04 1.00 0.0 53 0.00 0.00 0.00 0.000
10/31/2014 9:20:58a 336 0 0 37 84 72.5 58.1 30.04 1.00 0.0 49 0.00 0.00 0.00 0.000
10/31/2014 9:21:58a 336 0 0 37 84 72.5 58.2 30.04 1.00 0.0 46 0.00 0.00 0.00 0.000
10/31/2014 9:22:58a 336 0 0 37 84 72.5 58.1 30.04 1.00 0.0 44 0.00 0.00 0.00 0.000
10/31/2014 9:23:58a 336 0 0 37 84 72.5 58.1 30.04 1.00 0.0 44 0.00 0.00 0.00 0.000
10/31/2014 9:24:58a 336 0 1 37 84 72.5 58.1 30.04 1.00 0.0 44 0.00 0.00 0.00 0.000
10/31/2014 9:25:58a 336 0 1 37 84 72.5 58.2 30.04 1.00 0.0 46 0.00 0.00 0.00 0.000
10/31/2014 9:26:58a 336 0 1 37 84 72.5 58.2 30.04 1.00 0.0 47 0.00 0.00 0.00 0.000
10/31/2014 9:27:58a 336 0 1 37 84 72.5 58.2 30.04 1.00 0.0 49 0.00 0.00 0.00 0.000
10/31/2014 9:28:58a 336 0 1 37 84 72.5 58.3 30.05 1.00 0.0 53 0.00 0.00 0.00 0.000
10/31/2014 9:29:58a 336 0 1 37 84 72.7 58.3 30.04 1.00 0.0 56 0.00 0.00 0.00 0.000
10/31/2014 9:30:58a 336 0 1 37 84 72.7 58.3 30.04 1.00 0.0 60 0.00 0.00 0.00 0.000
10/31/2014 9:31:58a 336 0 1 37 85 72.7 58.4 30.04 1.00 0.0 65 0.00 0.00 0.00 0.000
10/31/2014 9:33:01a 336 0 1 37 85 72.7 58.4 30.04 1.00 0.0 74 0.00 0.00 0.00 0.000
10/31/2014 9:34:02a 336 0 0 37 85 72.7 58.5 30.04 1.00 0.0 77 0.00 0.00 0.00 0.000
10/31/2014 9:35:02a 336 0 0 37 85 72.7 58.6 30.04 1.00 0.0 81 0.00 0.00 0.00 0.000
10/31/2014 9:36:05a 336 0 1 37 85 72.7 58.7 30.04 1.00 0.0 84 0.00 0.00 0.00 0.000
10/31/2014 9:37:05a 336 1 1 37 85 72.7 58.7 30.04 1.00 0.0 86 0.00 0.00 0.00 0.000
10/31/2014 9:38:05a 336 0 1 37 85 72.7 58.7 30.04 1.00 0.0 88 0.00 0.00 0.00 0.000
10/31/2014 9:39:05a 336 0 1 37 85 72.7 58.8 30.04 1.00 0.0 90 0.00 0.00 0.00 0.000
10/31/2014 9:40:05a 336 0 1 37 85 72.8 58.8 30.04 1.00 0.0 93 0.00 0.00 0.00 0.000
10/31/2014 9:41:05a 336 1 2 37 85 72.8 58.9 30.04 1.00 0.0 95 0.00 0.00 0.00 0.000
10/31/2014 9:42:05a 336 1 2 37 85 72.8 58.9 30.04 1.00 0.0 95 0.00 0.00 0.00 0.000
10/31/2014 9:43:05a 336 2 2 37 85 72.8 58.9 30.04 1.00 0.0 97 0.00 0.00 0.00 0.000
10/31/2014 9:44:05a 336 1 2 37 85 72.8 58.9 30.04 1.00 0.0 95 0.00 0.00 0.00 0.000
10/31/2014 9:45:05a 336 1 2 37 85 72.8 59.0 30.04 1.00 0.0 95 0.00 0.00 0.00 0.000
10/31/2014 9:46:05a 336 1 2 37 85 72.8 59.0 30.04 1.00 0.0 93 0.00 0.00 0.00 0.000
10/31/2014 9:47:05a 336 1 2 37 85 72.8 59.0 30.04 1.00 0.0 93 0.00 0.00 0.00 0.000
10/31/2014 9:48:05a 336 1 2 37 85 72.8 59.2 30.04 1.00 0.0 95 0.00 0.00 0.00 0.000
10/31/2014 9:49:05a 336 1 2 37 87 72.8 59.3 30.04 1.00 0.0 95 0.00 0.00 0.00 0.000
10/31/2014 9:50:06a 336 0 2 37 87 72.8 59.3 30.04 1.00 0.0 95 0.00 0.00 0.00 0.000
10/31/2014 9:51:06a 336 2 3 37 85 73.0 59.3 30.04 1.00 0.0 95 0.00 0.00 0.00 0.000
10/31/2014 9:52:06a 336 1 3 37 85 73.0 59.3 30.04 1.00 0.0 95 0.00 0.00 0.00 0.000
10/31/2014 9:53:06a 336 1 3 38 85 73.0 59.3 30.04 1.00 0.0 95 0.00 0.00 0.00 0.000
10/31/2014 9:54:06a 336 1 3 38 85 73.0 59.3 30.04 1.00 0.0 95 0.00 0.00 0.00 0.000
10/31/2014 9:55:06a 336 0 3 38 85 73.0 59.3 30.04 1.00 0.0 97 0.00 0.00 0.00 0.000
10/31/2014 9:56:06a 336 2 3 38 85 73.0 59.3 30.04 1.00 0.5 100 0.00 0.00 0.00 0.000
10/31/2014 9:57:06a 336 1 3 38 85 73.0 59.3 30.04 1.00 0.5 104 0.00 0.00 0.00 0.000
10/31/2014 9:58:06a 336 1 3 38 85 73.0 59.3 30.04 1.00 0.5 107 0.00 0.00 0.00 0.000
10/31/2014 9:59:06a 336 2 3 38 85 73.0 59.3 30.04 1.00 0.5 111 0.00 0.00 0.00 0.000
10/31/2014 10:00:06a 336 3 3 38 85 73.0 59.4 30.04 1.00 0.5 113 0.00 0.00 0.00 0.000
10/31/2014 10:01:06a 336 0 3 38 85 73.0 59.5 30.04 1.00 0.5 114 0.00 0.00 0.00 0.000
10/31/2014 10:02:06a 336 1 3 38 85 73.0 59.6 30.04 1.00 0.5 116 0.00 0.00 0.00 0.000
10/31/2014 10:03:06a 336 0 3 38 85 73.2 59.6 30.04 1.00 0.5 118 0.00 0.00 0.00 0.000
10/31/2014 10:04:07a 336 1 2 38 85 73.2 59.6 30.04 1.00 0.6 120 0.00 0.00 0.00 0.000
10/31/2014 10:05:07a 336 1 2 38 84 73.2 59.7 30.04 1.00 0.6 123 0.00 0.00 0.00 0.000
10/31/2014 10:06:07a 336 2 3 38 84 73.2 59.7 30.04 1.00 0.6 125 0.00 0.00 0.00 0.000
10/31/2014 10:07:07a 336 2 3 38 84 73.2 59.7 30.04 1.00 0.6 127 0.00 0.00 0.00 0.000
10/31/2014 10:08:10a 336 0 3 38 84 73.2 59.7 30.04 1.00 0.6 132 0.00 0.00 0.00 0.000
10/31/2014 10:09:10a 336 0 3 38 84 73.2 59.7 30.04 1.00 0.6 134 0.00 0.00 0.00 0.000
10/31/2014 10:10:10a 336 0 3 38 84 73.2 59.8 30.04 1.00 0.6 137 0.00 0.00 0.00 0.000
10/31/2014 10:11:10a 336 0 3 38 84 73.2 59.8 30.04 1.00 0.7 139 0.00 0.00 0.00 0.000
10/31/2014 10:12:10a 336 0 3 38 84 73.2 59.9 30.04 1.00 0.7 142 0.00 0.00 0.00 0.000
10/31/2014 10:13:10a 336 0 3 38 84 73.2 59.9 30.04 1.00 0.7 144 0.00 0.00 0.00 0.000
10/31/2014 10:14:10a 336 0 3 38 83 73.2 59.9 30.04 1.00 0.7 146 0.00 0.00 0.00 0.000
10/31/2014 10:15:13a 336 0 3 38 83 73.2 60.0 30.04 1.00 0.7 146 0.00 0.00 0.00 0.000
10/31/2014 10:16:13a 336 2 3 38 83 73.2 60.1 30.04 1.00 0.7 148 0.00 0.00 0.00 0.000
10/31/2014 10:17:13a 336 0 3 38 83 73.2 60.1 30.04 1.00 0.7 149 0.00 0.00 0.00 0.000
10/31/2014 10:18:17a 336 0 3 38 83 73.3 60.2 30.04 1.00 0.7 153 0.00 0.00 0.00 0.000
10/31/2014 10:19:17a 336 1 1 38 83 73.3 60.2 30.04 1.00 0.7 155 0.00 0.00 0.00 0.000
10/31/2014 10:20:17a 336 2 2 38 82 73.3 60.3 30.04 1.00 0.8 155 0.00 0.00 0.00 0.000
10/31/2014 10:21:17a 336 0 2 38 83 73.3 60.3 30.04 1.00 0.8 156 0.00 0.00 0.00 0.000
10/31/2014 10:22:17a 336 0 2 38 82 73.3 60.3 30.03 1.00 0.8 156 0.00 0.00 0.00 0.000
10/31/2014 10:23:17a 336 0 2 38 82 73.3 60.4 30.03 1.00 0.8 160 0.00 0.00 0.00 0.000
10/31/2014 10:24:17a 336 0 2 38 82 73.3 60.4 30.03 1.00 0.8 162 0.00 0.00 0.00 0.000
10/31/2014 10:25:17a 336 0 2 38 82 73.3 60.5 30.04 1.00 0.8 162 0.00 0.00 0.00 0.000
10/31/2014 10:26:17a 336 1 2 38 82 73.3 60.6 30.04 1.00 0.8 162 0.00 0.00 0.00 0.000
10/31/2014 10:27:17a 336 0 2 38 82 73.3 60.7 30.04 1.00 0.8 162 0.00 0.00 0.00 0.000
10/31/2014 10:28:17a 336 0 2 38 81 73.3 60.7 30.03 1.00 0.8 160 0.00 0.00 0.00 0.000
10/31/2014 10:29:17a 336 0 2 39 81 73.3 60.7 30.04 1.00 0.8 160 0.00 0.00 0.00 0.000
10/31/2014 10:30:17a 336 0 2 39 81 73.3 60.7 30.04 1.00 0.8 156 0.00 0.00 0.00 0.000
10/31/2014 10:31:17a 336 0 2 39 81 73.5 60.8 30.04 1.00 0.8 155 0.00 0.00 0.00 0.000
10/31/2014 10:32:17a 336 0 2 39 81 73.5 60.8 30.04 1.00 0.8 155 0.00 0.00 0.00 0.000
10/31/2014 10:33:17a 336 0 2 39 81 73.5 60.8 30.04 1.00 0.8 153 0.00 0.00 0.00 0.000
10/31/2014 10:34:17a 336 2 3 39 81 73.5 60.9 30.04 1.00 0.8 151 0.00 0.00 0.00 0.000
10/31/2014 10:35:18a 336 1 3 39 80 73.5 60.9 30.04 1.00 0.8 149 0.00 0.00 0.00 0.000
10/31/2014 10:36:24a 336 1 3 39 80 73.5 61.0 30.04 1.00 0.8 148 0.00 0.00 0.00 0.000
10/31/2014 10:37:24a 336 0 3 39 80 73.5 61.0 30.04 1.00 0.8 149 0.00 0.00 0.00 0.000
10/31/2014 10:38:24a 336 0 3 39 80 73.5 61.1 30.04 1.00 0.8 149 0.00 0.00 0.00 0.000
10/31/2014 10:39:24a 336 0 3 39 80 73.5 61.1 30.04 1.00 0.8 153 0.00 0.00 0.00 0.000
10/31/2014 10:40:24a 336 0 3 39 80 73.5 61.1 30.04 1.00 0.8 155 0.00 0.00 0.00 0.000
10/31/2014 10:41:24a 336 0 3 39 79 73.5 61.0 30.04 1.00 0.8 162 0.00 0.00 0.00 0.000
10/31/2014 10:42:24a 336 0 3 39 80 73.7 61.1 30.03 1.00 0.9 165 0.00 0.00 0.00 0.000
10/31/2014 10:43:24a 336 0 3 39 80 73.7 61.2 30.03 1.00 0.9 169 0.00 0.00 0.00 0.000
10/31/2014 10:44:24a 336 0 3 39 80 73.7 61.3 30.03 1.00 0.9 174 0.00 0.00 0.00 0.000
10/31/2014 10:45:25a 336 0 3 39 79 73.7 61.3 30.03 1.00 0.9 174 0.00 0.00 0.00 0.000
10/31/2014 10:46:34a 336 0 3 39 79 73.7 61.4 30.03 1.00 1.0 190 0.00 0.00 0.00 0.000
10/31/2014 10:47:34a 336 0 3 39 79 73.7 61.5 30.03 1.00 1.0 192 0.00 0.00 0.00 0.000
10/31/2014 10:48:35a 336 0 0 39 79 73.7 61.6 30.03 1.00 1.0 192 0.00 0.00 0.00 0.000
10/31/2014 10:49:34a 336 0 0 39 79 73.7 61.7 30.03 1.00 1.1 192 0.00 0.00 0.00 0.000
10/31/2014 10:50:34a 336 0 0 39 79 73.7 61.8 30.03 1.00 1.1 192 0.00 0.00 0.00 0.000
10/31/2014 10:51:40a 336 0 1 39 79 73.7 61.8 30.03 1.00 1.1 193 0.00 0.00 0.00 0.000
10/31/2014 10:52:40a 336 0 1 39 78 73.9 61.9 30.03 1.00 1.1 193 0.00 0.00 0.00 0.000
10/31/2014 10:53:43a 336 0 2 39 78 73.9 61.9 30.03 1.00 1.1 195 0.00 0.00 0.00 0.000
10/31/2014 10:54:43a 336 0 2 39 78 73.9 62.0 30.03 1.00 1.1 195 0.00 0.00 0.00 0.000
10/31/2014 10:55:43a 336 0 2 39 78 73.9 62.0 30.03 1.00 1.2 195 0.00 0.00 0.00 0.000
10/31/2014 10:56:43a 336 1 2 39 78 73.9 62.0 30.03 1.00 1.2 199 0.00 0.00 0.00 0.000
10/31/2014 10:57:43a 336 0 2 39 77 73.9 62.0 30.03 1.00 1.2 200 0.00 0.00 0.00 0.000
10/31/2014 10:58:43a 336 1 2 39 77 73.9 61.9 30.03 1.00 1.3 202 0.00 0.00 0.00 0.000
10/31/2014 10:59:43a 336 0 2 39 77 73.9 61.9 30.03 1.00 1.3 202 0.00 0.00 0.00 0.000
10/31/2014 11:00:44a 336 0 2 39 77 73.9 61.9 30.03 1.00 1.3 204 0.00 0.00 0.00 0.000
10/31/2014 11:01:44a 336 0 2 39 77 73.9 61.9 30.03 1.00 1.4 209 0.00 0.00 0.00 0.000
10/31/2014 11:02:47a 336 0 2 39 77 74.0 61.9 30.02 1.00 1.4 229 0.00 0.00 0.00 0.000
10/31/2014 11:03:47a 336 0 1 39 77 74.0 61.9 30.03 1.00 1.6 244 0.00 0.00 0.00 0.000
10/31/2014 11:04:47a 336 0 1 39 77 74.0 62.0 30.02 1.00 1.6 260 0.00 0.00 0.00 0.000
10/31/2014 11:05:47a 336 0 2 39 77 74.0 62.1 30.03 1.00 1.7 283 0.00 0.00 0.00 0.000
10/31/2014 11:06:47a 336 0 2 39 77 74.0 62.2 30.03 1.00 1.9 338 0.00 0.00 0.00 0.000
10/31/2014 11:07:47a 336 0 2 39 77 74.0 62.3 30.03 1.00 2.3 338 0.00 0.00 0.00 0.000
10/31/2014 11:08:47a 334 3 3 39 76 74.0 62.5 30.03 1.00 2.5 673 0.00 0.00 0.00 0.000
10/31/2014 11:09:47a 197 2 5 39 76 74.0 62.5 30.03 1.00 2.6 691 0.00 0.00 0.00 0.000
10/31/2014 11:10:47a 197 0 5 39 76 74.0 62.6 30.03 1.00 2.6 680 0.00 0.00 0.00 0.000
10/31/2014 11:11:47a 197 0 5 39 76 74.2 62.8 30.03 1.00 2.5 661 0.00 0.00 0.00 0.000
10/31/2014 11:12:50a 197 2 5 39 76 74.2 62.9 30.03 1.00 2.6 668 0.00 0.00 0.00 0.000
10/31/2014 11:13:51a 197 0 5 39 75 74.2 63.1 30.03 1.00 2.5 635 0.00 0.00 0.00 0.000
10/31/2014 11:14:54a 197 2 5 39 75 74.2 63.2 30.02 1.00 2.7 700 0.00 0.00 0.00 0.000
10/31/2014 11:15:54a 197 1 5 39 75 74.2 63.2 30.02 1.00 2.6 700 0.00 0.00 0.00 0.000
10/31/2014 11:16:54a 212 4 5 39 74 74.2 63.3 30.02 1.00 2.6 622 0.00 0.00 0.00 0.000
10/31/2014 11:17:54a 211 1 5 39 74 74.2 63.3 30.02 1.00 2.3 622 0.00 0.00 0.00 0.000
10/31/2014 11:18:54a 211 3 3 40 74 74.2 63.4 30.02 1.00 2.4 476 0.00 0.00 0.00 0.000
10/31/2014 11:19:57a 213 4 4 40 74 74.2 63.4 30.02 1.00 2.3 476 0.00 0.00 0.00 0.000
10/31/2014 11:20:57a 213 3 4 40 74 74.2 63.5 30.02 1.00 2.5 519 0.00 0.00 0.00 0.000
10/31/2014 11:21:57a 190 2 4 40 73 74.4 63.5 30.02 1.00 2.6 599 0.00 0.00 0.00 0.000
10/31/2014 11:22:57a 190 3 4 40 73 74.4 63.6 30.02 1.00 2.6 534 0.00 0.00 0.00 0.000
10/31/2014 11:23:57a 190 1 4 40 73 74.4 63.6 30.02 1.00 2.6 585 0.00 0.00 0.00 0.000
10/31/2014 11:24:57a 209 4 6 40 73 74.4 63.6 30.02 1.00 2.6 603 0.00 0.00 0.00 0.000
10/31/2014 11:25:57a 209 3 6 40 73 74.4 63.7 30.02 1.00 2.4 603 0.00 0.00 0.00 0.000
10/31/2014 11:27:00a 209 0 6 40 73 74.4 63.7 30.01 1.00 2.4 492 0.00 0.00 0.00 0.000
10/31/2014 11:28:00a 209 0 6 40 73 74.4 63.8 30.01 1.00 2.4 504 0.00 0.00 0.00 0.000
10/31/2014 11:29:01a 209 0 6 40 73 74.4 63.8 30.01 1.00 2.4 504 0.00 0.00 0.00 0.000
10/31/2014 11:30:01a 201 2 6 40 73 74.5 63.8 30.01 1.00 2.4 515 0.00 0.00 0.00 0.000
10/31/2014 11:31:04a 199 0 6 40 73 74.5 64.0 30.01 1.00 2.3 522 0.00 0.00 0.00 0.000
10/31/2014 11:32:04a 199 3 6 40 73 74.5 64.3 30.01 1.00 2.3 501 0.00 0.00 0.00 0.000
10/31/2014 11:33:04a 198 4 6 40 72 74.5 64.4 30.01 1.00 2.2 469 0.00 0.00 0.00 0.000
10/31/2014 11:34:04a 199 1 4 40 71 74.5 64.3 30.01 1.00 2.3 483 0.00 0.00 0.00 0.000
10/31/2014 11:35:07a 199 0 4 40 71 74.5 64.2 30.01 1.00 2.2 441 0.00 0.00 0.00 0.000
10/31/2014 11:36:07a 199 0 4 40 71 74.5 64.2 30.01 1.00 2.1 415 0.00 0.00 0.00 0.000
10/31/2014 11:37:07a 199 1 4 40 71 74.5 64.2 30.01 1.00 1.9 396 0.00 0.00 0.00 0.000
10/31/2014 11:38:07a 199 0 4 40 71 74.7 64.3 30.01 1.00 1.8 380 0.00 0.00 0.00 0.000
10/31/2014 11:39:07a 199 0 4 40 71 74.7 64.4 30.01 1.00 1.7 367 0.00 0.00 0.00 0.000
10/31/2014 11:40:07a 199 2 4 40 71 74.7 64.5 30.01 1.00 1.6 348 0.00 0.00 0.00 0.000
10/31/2014 11:41:07a 184 3 4 40 71 74.7 64.6 30.01 1.00 1.6 313 0.00 0.00 0.00 0.000
10/31/2014 11:42:07a 184 1 4 40 70 74.7 64.7 30.01 1.00 1.5 304 0.00 0.00 0.00 0.000
10/31/2014 11:43:07a 182 1 4 40 70 74.7 64.7 30.01 1.00 1.4 295 0.00 0.00 0.00 0.000
10/31/2014 11:44:07a 201 3 4 40 69 74.7 64.6 30.01 1.00 1.4 288 0.00 0.00 0.00 0.000
10/31/2014 11:45:07a 203 2 4 40 69 74.9 64.7 30.01 1.00 1.4 287 0.00 0.00 0.00 0.000
10/31/2014 11:46:07a 203 3 4 40 69 74.9 64.7 30.01 1.00 1.4 283 0.00 0.00 0.00 0.000
10/31/2014 11:47:07a 214 5 9 40 69 74.9 64.6 30.01 1.00 1.4 283 0.00 0.00 0.00 0.000
10/31/2014 11:48:08a 179 4 9 40 69 74.9 64.5 30.00 1.00 1.4 279 0.00 0.00 0.00 0.000
10/31/2014 11:49:08a 179 0 1 40 69 74.9 64.4 30.00 1.00 1.4 278 0.00 0.00 0.00 0.000
10/31/2014 11:50:11a 179 1 1 40 69 74.9 64.3 30.00 1.00 1.4 278 0.00 0.00 0.00 0.000
10/31/2014 11:51:11a 182 3 4 40 70 75.1 64.3 30.00 1.00 1.5 283 0.00 0.00 0.00 0.000
10/31/2014 11:52:11a 187 3 4 40 69 75.1 64.2 30.00 1.00 1.5 301 0.00 0.00 0.00 0.000
10/31/2014 11:53:11a 188 4 4 40 69 75.1 64.2 30.00 1.00 1.6 316 0.00 0.00 0.00 0.000
10/31/2014 11:54:14a 188 0 4 40 70 75.1 64.2 30.00 1.00 1.7 332 0.00 0.00 0.00 0.000
10/31/2014 11:55:14a 188 1 4 40 70 75.1 64.2 30.00 1.00 1.8 341 0.00 0.00 0.00 0.000
10/31/2014 11:56:14a 187 2 4 40 70 75.1 64.3 30.00 1.00 1.8 345 0.00 0.00 0.00 0.000
10/31/2014 11:57:14a 187 3 4 40 69 75.2 64.3 30.00 1.00 1.8 355 0.00 0.00 0.00 0.000
10/31/2014 11:58:14a 186 1 4 40 70 75.2 64.4 30.00 1.00 1.8 357 0.00 0.00 0.00 0.000
10/31/2014 11:59:15a 182 3 5 40 70 75.2 64.4 30.00 1.00 1.8 360 0.00 0.00 0.00 0.000
10/31/2014 12:00:15p 192 5 6 40 69 75.2 64.4 30.00 1.00 1.9 360 0.00 0.00 0.00 0.000
10/31/2014 12:01:18p 172 3 6 40 69 75.2 64.4 30.00 1.00 1.9 364 0.00 0.00 0.00 0.000
10/31/2014 12:02:24p 172 0 6 40 69 75.4 64.3 29.99 1.00 1.9 376 0.00 0.00 0.00 0.000
10/31/2014 12:03:27p 188 2 6 40 69 75.4 64.2 29.99 1.00 2.0 411 0.00 0.00 0.00 0.000
10/31/2014 12:04:27p 185 3 4 40 69 75.4 64.3 30.00 1.00 2.2 445 0.00 0.00 0.00 0.000
10/31/2014 12:05:27p 180 4 5 40 69 75.4 64.4 29.99 1.00 2.4 545 0.00 0.00 0.00 0.000
10/31/2014 12:06:27p 180 1 5 40 69 75.4 64.4 29.99 1.00 2.4 570 0.00 0.00 0.00 0.000
10/31/2014 12:07:27p 179 1 5 40 69 75.6 64.4 29.99 1.00 2.2 475 0.00 0.00 0.00 0.000
10/31/2014 12:08:31p 180 0 5 40 69 75.6 64.5 29.99 1.00 2.1 408 0.00 0.00 0.00 0.000
10/31/2014 12:09:31p 180 0 5 40 69 75.6 64.5 29.99 1.00 2.0 380 0.00 0.00 0.00 0.000
10/31/2014 12:10:31p 180 0 5 40 69 75.6 64.6 29.99 1.00 1.8 360 0.00 0.00 0.00 0.000
10/31/2014 12:11:31p 183 3 5 40 69 75.6 64.7 29.99 1.00 1.7 348 0.00 0.00 0.00 0.000
10/31/2014 12:12:45p 163 5 5 40 69 75.8 64.9 29.99 1.00 1.7 334 0.00 0.00 0.00 0.000
10/31/2014 12:13:45p 179 2 7 40 69 75.8 64.9 29.99 1.00 1.7 330 0.00 0.00 0.00 0.000
10/31/2014 12:14:48p 194 3 7 40 68 75.8 65.0 29.99 1.00 1.7 322 0.00 0.00 0.00 0.000
10/31/2014 12:15:48p 190 5 7 40 68 75.8 64.9 29.99 1.00 1.7 315 0.00 0.00 0.00 0.000
10/31/2014 12:16:48p 211 6 7 40 68 75.8 64.9 29.99 1.00 1.7 311 0.00 0.00 0.00 0.000
10/31/2014 12:17:48p 209 2 7 40 67 75.9 64.8 29.99 1.00 1.7 313 0.00 0.00 0.00 0.000
10/31/2014 12:18:48p 209 1 3 40 67 75.9 64.7 29.99 1.00 1.7 306 0.00 0.00 0.00 0.000
10/31/2014 12:19:48p 217 1 4 40 67 75.9 64.6 29.99 1.00 1.6 304 0.00 0.00 0.00 0.000
10/31/2014 12:20:48p 169 1 4 40 67 75.9 64.6 29.98 1.00 1.6 295 0.00 0.00 0.00 0.000
10/31/2014 12:21:48p 175 1 4 40 67 75.9 64.6 29.98 1.00 1.5 283 0.00 0.00 0.00 0.000
10/31/2014 12:22:49p 194 3 4 40 67 76.1 64.6 29.98 1.00 1.5 278 0.00 0.00 0.00 0.000
10/31/2014 12:23:49p 188 3 4 40 68 76.1 64.6 29.98 1.00 1.5 278 0.00 0.00 0.00 0.000
10/31/2014 12:24:52p 179 1 5 40 67 76.1 64.6 29.98 1.00 1.5 279 0.00 0.00 0.00 0.000
10/31/2014 12:25:52p 180 4 6 40 67 76.1 64.6 29.98 1.00 1.5 278 0.00 0.00 0.00 0.000
10/31/2014 12:26:52p 187 3 6 40 67 76.3 64.6 29.98 1.00 1.5 272 0.00 0.00 0.00 0.000
10/31/2014 12:27:52p 197 5 7 40 67 76.3 64.6 29.98 1.00 1.5 272 0.00 0.00 0.00 0.000
10/31/2014 12:28:52p 197 2 7 40 67 76.3 64.6 29.98 1.00 1.4 267 0.00 0.00 0.00 0.000
10/31/2014 12:29:58p 178 3 7 40 67 76.3 64.6 29.98 1.00 1.3 244 0.00 0.00 0.00 0.000
10/31/2014 12:31:02p 177 6 7 40 67 76.5 64.5 29.98 1.00 1.3 232 0.00 0.00 0.00 0.000
10/31/2014 12:32:02p 175 2 7 40 67 76.5 64.5 29.98 1.00 1.3 227 0.00 0.00 0.00 0.000
10/31/2014 12:33:02p 175 2 7 40 67 76.5 64.5 29.98 1.00 1.2 213 0.00 0.00 0.00 0.000
10/31/2014 12:34:02p 172 7 8 40 67 76.5 64.5 29.98 1.00 1.2 213 0.00 0.00 0.00 0.000
10/31/2014 12:35:02p 224 6 8 40 67 76.6 64.5 29.98 1.00 1.3 221 0.00 0.00 0.00 0.000
10/31/2014 12:36:02p 200 7 8 40 67 76.6 64.4 29.98 1.00 1.3 216 0.00 0.00 0.00 0.000
10/31/2014 12:37:03p 188 5 10 40 67 76.6 64.4 29.98 1.00 1.3 221 0.00 0.00 0.00 0.000
10/31/2014 12:38:06p 174 4 10 40 67 76.6 64.3 29.98 1.00 1.3 218 0.00 0.00 0.00 0.000
10/31/2014 12:39:06p 179 1 10 40 67 76.8 64.2 29.98 1.00 1.3 223 0.00 0.00 0.00 0.000
10/31/2014 12:40:09p 167 2 10 40 67 76.8 64.2 29.98 1.00 1.3 243 0.00 0.00 0.00 0.000
10/31/2014 12:41:12p 260 0 10 40 67 76.8 64.2 29.98 1.00 1.4 251 0.00 0.00 0.00 0.000
10/31/2014 12:42:18p 234 0 10 40 67 76.8 64.2 29.98 1.00 1.4 257 0.00 0.00 0.00 0.000
10/31/2014 12:43:19p 237 1 10 40 67 77.0 64.3 29.98 1.00 1.5 267 0.00 0.00 0.00 0.000
10/31/2014 12:44:19p 197 4 10 40 67 77.0 64.3 29.98 1.00 1.5 251 0.00 0.00 0.00 0.000
10/31/2014 12:45:19p 228 4 10 40 67 77.0 64.4 29.98 1.00 1.4 232 0.00 0.00 0.00 0.000
10/31/2014 12:46:19p 203 3 10 40 67 77.0 64.4 29.97 1.00 1.4 241 0.00 0.00 0.00 0.000
10/31/2014 12:47:19p 178 2 10 40 67 77.2 64.5 29.97 1.00 1.5 269 0.00 0.00 0.00 0.000
10/31/2014 12:48:19p 170 2 10 40 66 77.2 64.5 29.97 1.00 1.4 244 0.00 0.00 0.00 0.000
10/31/2014 12:49:19p 217 4 7 40 67 77.2 64.6 29.97 1.00 1.5 260 0.00 0.00 0.00 0.000
10/31/2014 12:50:19p 195 3 7 40 66 77.2 64.6 29.97 1.00 1.5 276 0.00 0.00 0.00 0.000
10/31/2014 12:51:23p 183 4 7 40 66 77.3 64.5 29.97 1.00 1.5 265 0.00 0.00 0.00 0.000
10/31/2014 12:52:26p 186 2 7 40 66 77.3 64.6 29.97 1.00 1.5 243 0.00 0.00 0.00 0.000
10/31/2014 12:53:26p 192 6 7 40 67 77.3 64.7 29.97 1.00 1.6 276 0.00 0.00 0.00 0.000
10/31/2014 12:54:26p 174 4 7 40 66 77.3 64.7 29.97 1.00 1.7 295 0.00 0.00 0.00 0.000
10/31/2014 12:55:26p 199 1 7 40 65 77.3 64.6 29.97 1.00 1.8 311 0.00 0.00 0.00 0.000
10/31/2014 12:56:26p 184 5 7 40 66 77.5 64.6 29.96 1.00 1.6 294 0.00 0.00 0.00 0.000
10/31/2014 12:57:26p 185 4 7 40 66 77.5 64.5 29.97 1.00 1.5 248 0.00 0.00 0.00 0.000
10/31/2014 12:58:26p 188 4 7 40 66 77.5 64.5 29.97 1.00 1.6 274 0.00 0.00 0.00 0.000
10/31/2014 12:59:26p 188 0 7 40 65 77.5 64.4 29.97 1.00 1.6 283 0.00 0.00 0.00 0.000
10/31/2014 1:00:26p 188 0 7 40 65 77.5 64.4 29.97 1.00 1.6 283 0.00 0.00 0.00 0.000
10/31/2014 1:01:27p 188 3 7 40 66 77.5 64.4 29.96 1.00 1.5 251 0.00 0.00 0.00 0.000
10/31/2014 1:02:27p 189 4 7 40 66 77.5 64.5 29.96 1.00 1.5 262 0.00 0.00 0.00 0.000
10/31/2014 1:03:27p 203 4 7 40 66 77.7 64.5 29.96 1.00 1.5 271 0.00 0.00 0.00 0.000
10/31/2014 1:04:27p 145 4 6 40 65 77.7 64.5 29.96 1.00 1.5 237 0.00 0.00 0.00 0.000
10/31/2014 1:05:27p 157 4 6 40 66 77.7 64.5 29.96 1.00 1.4 230 0.00 0.00 0.00 0.000
10/31/2014 1:06:27p 172 5 6 40 66 77.7 64.6 29.96 1.00 1.4 236 0.00 0.00 0.00 0.000
10/31/2014 1:07:27p 164 3 6 40 66 77.7 64.6 29.96 1.00 1.4 244 0.00 0.00 0.00 0.000
10/31/2014 1:08:27p 197 3 6 40 65 77.7 64.6 29.97 1.00 1.5 248 0.00 0.00 0.00 0.000
10/31/2014 1:09:27p 197 2 6 40 65 77.7 64.6 29.96 1.00 1.6 253 0.00 0.00 0.00 0.000
10/31/2014 1:10:27p 183 1 6 40 65 77.9 64.5 29.96 1.00 1.8 308 0.00 0.00 0.00 0.000
10/31/2014 1:11:27p 171 2 6 40 65 77.9 64.6 29.96 1.00 2.0 308 0.00 0.00 0.00 0.000
10/31/2014 1:12:27p 188 3 6 40 65 77.9 64.6 29.96 1.00 2.0 383 0.00 0.00 0.00 0.000
10/31/2014 1:13:27p 213 1 6 40 65 77.9 64.7 29.96 1.00 2.1 329 0.00 0.00 0.00 0.000
10/31/2014 1:14:33p 223 1 6 39 65 77.9 64.7 29.96 1.00 1.9 318 0.00 0.00 0.00 0.000
10/31/2014 1:15:33p 222 0 6 39 65 77.9 64.8 29.96 1.00 1.9 309 0.00 0.00 0.00 0.000
10/31/2014 1:16:34p 229 4 6 39 65 77.9 64.9 29.96 1.00 1.9 309 0.00 0.00 0.00 0.000
10/31/2014 1:17:37p 229 2 6 39 65 77.9 65.0 29.96 1.00 1.9 387 0.00 0.00 0.00 0.000
10/31/2014 1:18:37p 201 5 6 39 65 77.9 65.0 29.96 1.00 2.1 415 0.00 0.00 0.00 0.000
10/31/2014 1:19:40p 176 4 6 39 65 78.1 65.0 29.96 1.00 2.1 413 0.00 0.00 0.00 0.000
10/31/2014 1:20:40p 207 3 6 39 65 78.1 65.0 29.96 1.00 2.0 396 0.00 0.00 0.00 0.000
10/31/2014 1:21:43p 207 1 6 39 64 78.1 65.0 29.96 1.00 2.0 373 0.00 0.00 0.00 0.000
10/31/2014 1:22:43p 207 2 6 39 64 78.1 65.0 29.96 1.00 1.9 366 0.00 0.00 0.00 0.000
10/31/2014 1:23:43p 207 1 6 39 64 78.1 64.9 29.96 1.00 1.8 292 0.00 0.00 0.00 0.000
10/31/2014 1:24:43p 207 3 6 39 64 78.1 64.8 29.96 1.00 1.6 279 0.00 0.00 0.00 0.000
10/31/2014 1:25:43p 217 1 6 39 64 78.1 64.8 29.96 1.00 1.6 281 0.00 0.00 0.00 0.000
10/31/2014 1:26:43p 217 0 6 39 64 78.1 64.9 29.96 1.00 1.5 262 0.00 0.00 0.00 0.000
10/31/2014 1:27:43p 217 0 6 39 64 78.1 65.0 29.96 1.00 1.5 244 0.00 0.00 0.00 0.000
10/31/2014 1:28:46p 217 0 6 39 64 78.1 65.0 29.95 1.00 1.4 253 0.00 0.00 0.00 0.000
10/31/2014 1:29:46p 217 0 6 39 64 78.1 65.0 29.96 1.00 1.5 271 0.00 0.00 0.00 0.000
10/31/2014 1:30:46p 118 2 6 39 64 78.2 65.0 29.95 1.00 1.5 265 0.00 0.00 0.00 0.000
10/31/2014 1:31:46p 157 3 6 39 64 78.2 65.1 29.95 1.00 1.6 260 0.00 0.00 0.00 0.000
10/31/2014 1:32:46p 188 5 6 39 64 78.2 65.2 29.95 1.00 1.7 325 0.00 0.00 0.00 0.000
10/31/2014 1:33:46p 165 4 5 39 64 78.2 65.3 29.95 1.00 1.8 359 0.00 0.00 0.00 0.000
10/31/2014 1:34:46p 179 3 5 39 64 78.2 65.4 29.95 1.00 1.8 345 0.00 0.00 0.00 0.000
10/31/2014 1:35:50p 174 5 5 39 64 78.2 65.4 29.95 1.00 1.9 346 0.00 0.00 0.00 0.000
10/31/2014 1:36:50p 186 4 5 39 63 78.2 65.4 29.95 1.00 1.9 350 0.00 0.00 0.00 0.000
10/31/2014 1:37:53p 188 0 5 39 64 78.2 65.5 29.95 1.00 1.9 338 0.00 0.00 0.00 0.000
10/31/2014 1:38:53p 128 3 5 39 63 78.2 65.6 29.95 1.00 1.9 334 0.00 0.00 0.00 0.000
10/31/2014 1:39:53p 191 4 5 39 63 78.2 65.6 29.95 1.00 1.9 345 0.00 0.00 0.00 0.000
10/31/2014 1:40:53p 190 0 5 39 63 78.2 65.5 29.95 1.00 2.0 360 0.00 0.00 0.00 0.000
10/31/2014 1:41:53p 82 4 5 39 62 78.2 65.5 29.95 1.00 2.0 373 0.00 0.00 0.00 0.000
10/31/2014 1:42:53p 82 2 5 39 62 78.2 65.5 29.95 1.00 2.3 424 0.00 0.00 0.00 0.000
10/31/2014 1:43:53p 80 3 5 39 62 78.2 65.4 29.95 1.00 2.3 424 0.00 0.00 0.00 0.000
10/31/2014 1:44:53p 61 3 5 39 62 78.4 65.4 29.95 1.00 2.3 589 0.00 0.00 0.00 0.000
10/31/2014 1:45:53p 100 5 6 39 63 78.4 65.5 29.94 1.00 1.9 445 0.00 0.00 0.00 0.000
10/31/2014 1:46:53p 90 3 6 39 62 78.4 65.5 29.94 1.00 2.1 512 0.00 0.00 0.00 0.000
10/31/2014 1:47:56p 91 2 6 39 62 78.4 65.6 29.94 1.00 2.1 503 0.00 0.00 0.00 0.000
10/31/2014 1:48:56p 91 1 1 39 62 78.4 65.6 29.94 1.00 2.3 503 0.00 0.00 0.00 0.000
10/31/2014 1:49:56p 80 3 4 39 62 78.4 65.7 29.94 1.00 1.8 503 0.00 0.00 0.00 0.000
10/31/2014 1:50:56p 49 2 5 39 62 78.4 65.8 29.94 1.00 1.8 316 0.00 0.00 0.00 0.000
10/31/2014 1:51:56p 174 3 5 39 62 78.4 66.0 29.94 1.00 1.8 318 0.00 0.00 0.00 0.000
10/31/2014 1:52:56p 173 4 5 39 62 78.4 66.1 29.94 1.00 1.8 330 0.00 0.00 0.00 0.000
10/31/2014 1:54:00p 165 3 5 39 62 78.4 66.3 29.94 1.00 1.8 341 0.00 0.00 0.00 0.000
10/31/2014 1:55:00p 169 1 5 39 61 78.4 66.3 29.94 1.00 2.2 341 0.00 0.00 0.00 0.000
10/31/2014 1:56:00p 170 2 5 39 61 78.6 66.2 29.94 1.00 2.2 341 0.00 0.00 0.00 0.000
10/31/2014 1:57:00p 170 1 5 39 61 78.6 66.2 29.94 1.00 1.8 332 0.00 0.00 0.00 0.000
10/31/2014 1:58:00p 170 0 5 39 61 78.6 66.1 29.94 1.00 1.8 323 0.00 0.00 0.00 0.000
10/31/2014 1:59:03p 98 2 5 39 61 78.6 66.2 29.94 1.00 1.7 318 0.00 0.00 0.00 0.000
10/31/2014 2:00:03p 104 0 5 39 61 78.6 66.2 29.94 1.00 1.7 311 0.00 0.00 0.00 0.000
10/31/2014 2:01:03p 105 0 5 39 61 78.6 66.2 29.94 1.00 1.7 309 0.00 0.00 0.00 0.000
10/31/2014 2:02:03p 195 3 5 39 61 78.6 66.3 29.94 1.00 1.8 334 0.00 0.00 0.00 0.000
10/31/2014 2:03:03p 201 3 6 38 62 78.6 66.5 29.93 1.00 1.9 334 0.00 0.00 0.00 0.000
10/31/2014 2:04:03p 195 3 4 38 61 78.6 66.5 29.94 1.00 1.8 320 0.00 0.00 0.00 0.000
10/31/2014 2:05:06p 165 3 4 38 61 78.6 66.5 29.93 1.00 1.8 304 0.00 0.00 0.00 0.000
10/31/2014 2:06:06p 188 4 5 38 61 78.6 66.4 29.94 1.00 1.8 276 0.00 0.00 0.00 0.000
10/31/2014 2:07:13p 192 2 6 38 61 78.6 66.3 29.94 1.00 1.7 302 0.00 0.00 0.00 0.000
10/31/2014 2:08:13p 192 0 6 38 61 78.6 66.2 29.93 1.00 1.6 260 0.00 0.00 0.00 0.000
10/31/2014 2:09:13p 192 0 6 38 61 78.6 66.1 29.93 1.00 1.6 255 0.00 0.00 0.00 0.000
10/31/2014 2:10:13p 190 1 6 38 61 78.6 66.1 29.93 1.00 1.5 255 0.00 0.00 0.00 0.000
10/31/2014 2:11:13p 75 3 6 38 61 78.6 66.2 29.93 1.00 1.5 255 0.00 0.00 0.00 0.000
10/31/2014 2:12:13p 84 5 6 38 61 78.8 66.2 29.93 1.00 1.5 257 0.00 0.00 0.00 0.000
10/31/2014 2:13:13p 59 4 6 38 61 78.8 66.1 29.93 1.00 1.4 285 0.00 0.00 0.00 0.000
10/31/2014 2:14:13p 85 5 7 38 61 78.8 66.1 29.93 1.00 1.5 285 0.00 0.00 0.00 0.000
10/31/2014 2:15:13p 100 4 10 38 61 78.8 66.1 29.93 1.00 1.5 301 0.00 0.00 0.00 0.000
10/31/2014 2:16:13p 82 5 10 38 61 78.8 66.1 29.93 1.00 1.5 301 0.00 0.00 0.00 0.000
10/31/2014 2:17:13p 76 4 10 38 61 78.8 66.1 29.93 1.00 1.5 302 0.00 0.00 0.00 0.000
10/31/2014 2:18:13p 69 3 10 38 62 78.8 66.1 29.93 1.00 1.5 299 0.00 0.00 0.00 0.000
10/31/2014 2:19:16p 90 6 8 38 61 78.8 66.1 29.93 1.00 1.5 302 0.00 0.00 0.00 0.000
10/31/2014 2:20:16p 118 2 8 38 61 78.8 66.1 29.93 1.00 1.5 311 0.00 0.00 0.00 0.000
10/31/2014 2:21:16p 184 5 8 38 61 78.8 66.2 29.93 1.00 1.6 315 0.00 0.00 0.00 0.000
10/31/2014 2:22:16p 179 3 8 38 61 78.8 66.2 29.93 1.00 1.7 345 0.00 0.00 0.00 0.000
10/31/2014 2:23:16p 178 4 8 38 62 78.8 66.2 29.93 1.00 1.7 329 0.00 0.00 0.00 0.000
10/31/2014 2:24:16p 174 0 8 38 62 78.8 66.3 29.93 1.00 1.7 315 0.00 0.00 0.00 0.000
10/31/2014 2:25:16p 74 0 8 38 62 78.8 66.4 29.92 1.00 1.6 327 0.00 0.00 0.00 0.000
10/31/2014 2:26:16p 155 2 8 38 61 78.8 66.4 29.92 1.00 1.8 327 0.00 0.00 0.00 0.000
10/31/2014 2:27:19p 249 1 8 38 61 78.8 66.6 29.93 1.00 2.0 327 0.00 0.00 0.00 0.000
10/31/2014 2:28:19p 167 0 8 38 61 78.9 66.7 29.92 1.00 1.9 619 0.00 0.00 0.00 0.000
10/31/2014 2:29:20p 88 3 8 38 61 78.9 66.8 29.92 1.00 1.9 577 0.00 0.00 0.00 0.000
10/31/2014 2:30:20p 92 5 8 38 60 78.9 66.8 29.92 1.00 1.7 577 0.00 0.00 0.00 0.000
10/31/2014 2:31:20p 85 2 8 38 60 78.9 66.8 29.92 1.00 1.7 577 0.00 0.00 0.00 0.000
10/31/2014 2:32:20p 82 4 8 38 60 78.9 66.8 29.92 1.00 1.8 417 0.00 0.00 0.00 0.000
10/31/2014 2:33:26p 85 6 10 38 60 78.9 66.9 29.92 1.00 2.1 417 0.00 0.00 0.00 0.000
10/31/2014 2:34:26p 94 1 6 38 60 78.9 67.0 29.92 1.00 1.6 417 0.00 0.00 0.00 0.000
10/31/2014 2:35:26p 96 3 7 38 60 78.9 67.1 29.92 1.00 1.6 338 0.00 0.00 0.00 0.000
10/31/2014 2:36:26p 92 2 7 38 60 78.9 67.2 29.92 1.00 1.6 338 0.00 0.00 0.00 0.000
10/31/2014 2:37:26p 186 4 7 38 60 78.9 67.3 29.92 1.00 1.5 338 0.00 0.00 0.00 0.000
10/31/2014 2:38:26p 183 3 7 38 59 78.9 67.3 29.92 1.00 1.5 318 0.00 0.00 0.00 0.000
10/31/2014 2:39:26p 180 1 7 38 59 78.9 67.3 29.92 1.00 1.6 353 0.00 0.00 0.00 0.000
10/31/2014 2:40:29p 155 6 7 38 59 78.9 67.2 29.92 1.00 1.4 330 0.00 0.00 0.00 0.000
10/31/2014 2:41:29p 234 3 7 38 59 78.9 67.2 29.92 1.00 1.3 271 0.00 0.00 0.00 0.000
10/31/2014 2:42:29p 192 6 7 38 59 79.1 67.1 29.92 1.00 1.3 255 0.00 0.00 0.00 0.000
10/31/2014 2:43:29p 183 6 9 38 59 79.1 67.0 29.92 1.00 1.2 251 0.00 0.00 0.00 0.000
10/31/2014 2:44:29p 190 3 9 38 59 79.1 66.8 29.92 1.00 1.2 250 0.00 0.00 0.00 0.000
10/31/2014 2:45:36p 199 2 9 38 59 79.1 66.7 29.92 1.00 1.2 244 0.00 0.00 0.00 0.000
10/31/2014 2:46:36p 177 5 9 38 59 79.1 66.7 29.92 1.00 1.1 246 0.00 0.00 0.00 0.000
10/31/2014 2:47:36p 155 6 9 38 60 79.1 66.6 29.92 1.00 1.1 243 0.00 0.00 0.00 0.000
10/31/2014 2:48:36p 165 5 6 38 60 79.1 66.5 29.92 1.00 1.1 241 0.00 0.00 0.00 0.000
10/31/2014 2:49:36p 165 3 6 38 59 79.1 66.4 29.92 1.00 1.1 243 0.00 0.00 0.00 0.000
10/31/2014 2:50:36p 183 4 6 38 60 79.1 66.4 29.92 1.00 1.1 243 0.00 0.00 0.00 0.000
10/31/2014 2:51:36p 175 1 6 38 60 79.1 66.4 29.92 1.00 1.1 241 0.00 0.00 0.00 0.000
10/31/2014 2:52:36p 182 4 6 38 60 79.1 66.5 29.92 1.00 1.1 236 0.00 0.00 0.00 0.000
10/31/2014 2:53:39p 200 6 6 38 60 79.1 66.6 29.92 1.00 1.1 236 0.00 0.00 0.00 0.000
10/31/2014 2:54:39p 203 4 6 38 60 79.1 66.6 29.92 1.00 1.1 232 0.00 0.00 0.00 0.000
10/31/2014 2:55:39p 173 3 6 38 60 79.1 66.5 29.92 1.00 1.0 232 0.00 0.00 0.00 0.000
10/31/2014 2:56:40p 169 4 6 38 60 79.1 66.5 29.92 1.00 1.0 216 0.00 0.00 0.00 0.000
10/31/2014 2:57:40p 167 2 6 38 60 79.3 66.4 29.92 1.00 1.0 204 0.00 0.00 0.00 0.000
10/31/2014 2:58:40p 167 1 6 38 60 79.3 66.4 29.92 1.00 0.9 199 0.00 0.00 0.00 0.000
10/31/2014 2:59:40p 167 1 6 38 60 79.3 66.3 29.92 1.00 0.9 195 0.00 0.00 0.00 0.000
10/31/2014 3:00:40p 167 2 6 38 60 79.3 66.3 29.92 1.00 0.8 186 0.00 0.00 0.00 0.000
10/31/2014 3:01:40p 167 0 6 38 60 79.3 66.3 29.92 1.00 0.8 178 0.00 0.00 0.00 0.000
10/31/2014 3:02:43p 167 0 6 38 60 79.3 66.3 29.92 1.00 0.8 158 0.00 0.00 0.00 0.000
10/31/2014 3:03:43p 167 0 0 38 61 79.3 66.4 29.93 1.00 0.7 149 0.00 0.00 0.00 0.000
10/31/2014 3:04:46p 194 4 5 38 61 79.3 66.5 29.93 1.00 0.6 142 0.00 0.00 0.00 0.000
10/31/2014 3:05:46p 202 2 5 38 60 79.3 66.5 29.93 1.00 0.6 135 0.00 0.00 0.00 0.000
10/31/2014 3:06:46p 202 1 5 38 60 79.3 66.5 29.93 1.00 0.6 132 0.00 0.00 0.00 0.000
10/31/2014 3:07:46p 203 2 5 38 60 79.3 66.4 29.92 1.00 0.6 128 0.00 0.00 0.00 0.000
10/31/2014 3:08:46p 203 0 5 38 60 79.3 66.4 29.93 1.00 0.6 123 0.00 0.00 0.00 0.000
10/31/2014 3:09:46p 203 0 5 38 60 79.3 66.4 29.93 1.00 0.5 113 0.00 0.00 0.00 0.000
10/31/2014 3:10:52p 202 0 5 38 61 79.3 66.3 29.93 1.00 0.5 113 0.00 0.00 0.00 0.000
10/31/2014 3:11:52p 203 0 5 38 60 79.3 66.3 29.93 1.00 0.5 107 0.00 0.00 0.00 0.000
10/31/2014 3:12:56p 203 0 5 38 60 79.3 66.4 29.93 1.00 0.5 105 0.00 0.00 0.00 0.000
10/31/2014 3:13:56p 203 0 5 38 60 79.3 66.3 29.93 1.00 0.0 100 0.00 0.00 0.00 0.000
10/31/2014 3:14:56p 203 0 5 38 60 79.3 66.3 29.93 1.00 0.0 90 0.00 0.00 0.00 0.000
10/31/2014 3:15:56p 203 0 5 38 60 79.3 66.4 29.93 1.00 0.0 97 0.00 0.00 0.00 0.000
10/31/2014 3:16:56p 203 0 5 38 60 79.3 66.5 29.93 1.00 0.0 95 0.00 0.00 0.00 0.000
10/31/2014 3:17:56p 203 0 5 38 60 79.3 66.5 29.93 1.00 0.0 95 0.00 0.00 0.00 0.000
10/31/2014 3:18:56p 203 0 0 38 60 79.3 66.5 29.93 1.00 0.0 97 0.00 0.00 0.00 0.000
10/31/2014 3:19:56p 203 0 1 38 60 79.5 66.4 29.93 1.00 0.0 97 0.00 0.00 0.00 0.000
10/31/2014 3:20:56p 203 0 1 38 60 79.5 66.4 29.93 1.00 0.0 97 0.00 0.00 0.00 0.000
10/31/2014 3:21:56p 203 0 1 38 60 79.5 66.3 29.93 1.00 0.0 93 0.00 0.00 0.00 0.000
10/31/2014 3:22:56p 203 0 1 38 60 79.5 66.3 29.93 1.00 0.0 90 0.00 0.00 0.00 0.000
10/31/2014 3:23:56p 203 0 1 38 60 79.5 66.3 29.93 1.00 0.0 91 0.00 0.00 0.00 0.000
10/31/2014 3:24:59p 203 0 1 38 60 79.5 66.3 29.93 1.00 0.0 81 0.00 0.00 0.00 0.000
10/31/2014 3:25:59p 203 1 1 38 60 79.5 66.2 29.93 1.00 0.0 79 0.00 0.00 0.00 0.000
10/31/2014 3:26:59p 202 2 2 38 60 79.5 66.2 29.93 1.00 0.0 84 0.00 0.00 0.00 0.000
10/31/2014 3:27:59p 202 0 2 37 61 79.5 66.3 29.93 1.00 0.0 88 0.00 0.00 0.00 0.000
10/31/2014 3:28:59p 197 4 6 37 60 79.5 66.3 29.93 1.00 0.0 91 0.00 0.00 0.00 0.000
10/31/2014 3:30:00p 200 4 6 37 61 79.5 66.3 29.93 1.00 0.0 93 0.00 0.00 0.00 0.000
10/31/2014 3:31:00p 207 0 6 37 61 79.5 66.3 29.93 1.00 0.0 90 0.00 0.00 0.00 0.000
10/31/2014 3:32:00p 207 2 6 37 61 79.5 66.4 29.93 1.00 0.0 81 0.00 0.00 0.00 0.000
10/31/2014 3:33:00p 207 0 6 37 61 79.5 66.3 29.93 1.00 0.0 65 0.00 0.00 0.00 0.000
10/31/2014 3:34:00p 207 0 0 37 60 79.5 66.3 29.93 1.00 0.0 69 0.00 0.00 0.00 0.000
10/31/2014 3:35:00p 207 0 0 37 61 79.5 66.3 29.93 1.00 0.0 83 0.00 0.00 0.00 0.000
10/31/2014 3:36:00p 207 0 0 37 61 79.5 66.4 29.93 1.00 0.0 90 0.00 0.00 0.00 0.000
10/31/2014 3:37:03p 207 0 0 37 61 79.5 66.4 29.93 1.00 0.0 91 0.00 0.00 0.00 0.000
10/31/2014 3:38:03p 207 0 1 37 61 79.5 66.4 29.93 1.00 0.0 102 0.00 0.00 0.00 0.000
10/31/2014 3:39:03p 141 4 4 37 61 79.5 66.4 29.93 1.00 0.0 86 0.00 0.00 0.00 0.000
10/31/2014 3:40:03p 151 0 4 37 61 79.5 66.5 29.93 1.00 0.0 93 0.00 0.00 0.00 0.000
10/31/2014 3:41:03p 151 1 4 37 61 79.5 66.5 29.92 1.00 0.0 109 0.00 0.00 0.00 0.000
10/31/2014 3:42:03p 151 0 4 37 61 79.7 66.5 29.93 1.00 0.0 102 0.00 0.00 0.00 0.000
10/31/2014 3:43:03p 173 4 5 37 61 79.7 66.5 29.92 1.00 0.0 91 0.00 0.00 0.00 0.000
10/31/2014 3:44:04p 175 1 5 37 61 79.7 66.6 29.92 1.00 0.0 79 0.00 0.00 0.00 0.000
10/31/2014 3:45:07p 176 3 5 37 61 79.7 66.6 29.93 1.00 0.0 84 0.00 0.00 0.00 0.000
10/31/2014 3:46:07p 175 3 5 37 61 79.7 66.6 29.93 1.00 0.0 91 0.00 0.00 0.00 0.000
10/31/2014 3:47:07p 176 3 5 37 60 79.7 66.6 29.92 1.00 0.0 69 0.00 0.00 0.00 0.000
10/31/2014 3:48:07p 176 0 5 37 60 79.7 66.5 29.93 1.00 0.0 76 0.00 0.00 0.00 0.000
10/31/2014 3:49:13p 219 4 5 37 61 79.7 66.5 29.93 1.00 0.0 77 0.00 0.00 0.00 0.000
10/31/2014 3:50:13p 224 5 5 37 61 79.7 66.4 29.92 1.00 0.0 77 0.00 0.00 0.00 0.000
10/31/2014 3:51:13p 217 1 5 37 61 79.7 66.4 29.93 1.00 0.0 62 0.00 0.00 0.00 0.000
10/31/2014 3:52:16p 217 0 5 37 61 79.7 66.4 29.93 1.00 0.0 54 0.00 0.00 0.00 0.000
10/31/2014 3:53:16p 217 0 5 37 61 79.7 66.4 29.93 1.00 0.0 62 0.00 0.00 0.00 0.000
10/31/2014 3:54:16p 217 0 5 37 61 79.7 66.4 29.93 1.00 0.0 63 0.00 0.00 0.00 0.000
10/31/2014 3:55:16p 217 2 5 37 61 79.7 66.4 29.93 1.00 0.0 67 0.00 0.00 0.00 0.000
10/31/2014 3:56:20p 217 0 5 37 61 79.7 66.3 29.93 1.00 0.0 67 0.00 0.00 0.00 0.000
10/31/2014 3:57:20p 217 0 5 37 61 79.7 66.3 29.93 1.00 0.0 58 0.00 0.00 0.00 0.000
10/31/2014 3:58:20p 217 0 5 37 61 79.7 66.3 29.93 1.00 0.0 63 0.00 0.00 0.00 0.000
10/31/2014 3:59:20p 217 0 5 37 61 79.7 66.3 29.92 1.00 0.0 74 0.00 0.00 0.00 0.000
10/31/2014 4:00:20p 59 2 5 37 61 79.7 66.4 29.92 1.00 0.0 77 0.00 0.00 0.00 0.000
10/31/2014 4:01:20p 84 2 5 37 61 79.7 66.4 29.92 1.00 0.0 77 0.00 0.00 0.00 0.000
10/31/2014 4:02:20p 84 1 5 37 61 79.7 66.5 29.92 1.00 0.0 58 0.00 0.00 0.00 0.000
10/31/2014 4:03:20p 84 1 5 37 61 79.7 66.5 29.92 1.00 0.0 39 0.00 0.00 0.00 0.000
10/31/2014 4:04:20p 145 4 4 37 61 79.7 66.5 29.92 1.00 0.0 35 0.00 0.00 0.00 0.000
10/31/2014 4:05:23p 145 1 4 37 61 79.9 66.6 29.92 1.00 0.0 33 0.00 0.00 0.00 0.000
10/31/2014 4:06:23p 145 1 4 37 60 79.9 66.6 29.92 1.00 0.0 35 0.00 0.00 0.00 0.000
10/31/2014 4:07:23p 165 2 4 37 60 79.9 66.5 29.92 1.00 0.0 37 0.00 0.00 0.00 0.000
10/31/2014 4:08:23p 165 2 4 37 60 79.9 66.5 29.92 1.00 0.0 32 0.00 0.00 0.00 0.000
10/31/2014 4:09:23p 167 0 4 37 61 79.9 66.5 29.92 1.00 0.0 25 0.00 0.00 0.00 0.000
10/31/2014 4:10:27p 167 0 4 37 61 79.9 66.4 29.92 1.00 0.0 19 0.00 0.00 0.00 0.000
10/31/2014 4:11:27p 167 0 4 37 61 79.9 66.5 29.92 1.00 0.0 18 0.00 0.00 0.00 0.000
10/31/2014 4:12:27p 167 0 4 37 61 79.9 66.5 29.92 1.00 0.0 18 0.00 0.00 0.00 0.000
10/31/2014 4:13:27p 167 2 4 37 61 79.9 66.6 29.92 1.00 0.0 18 0.00 0.00 0.00 0.000
10/31/2014 4:14:27p 113 0 4 37 61 79.9 66.5 29.92 1.00 0.0 19 0.00 0.00 0.00 0.000
10/31/2014 4:15:27p 175 0 4 37 61 79.9 66.5 29.92 1.00 0.0 21 0.00 0.00 0.00 0.000
10/31/2014 4:16:27p 175 3 4 37 61 79.9 66.5 29.92 1.00 0.0 21 0.00 0.00 0.00 0.000
10/31/2014 4:17:27p 175 1 4 37 61 79.9 66.4 29.92 1.00 0.0 23 0.00 0.00 0.00 0.000
10/31/2014 4:18:27p 183 4 4 37 61 79.9 66.4 29.92 1.00 0.0 23 0.00 0.00 0.00 0.000
10/31/2014 4:19:27p 174 1 4 37 61 79.9 66.4 29.92 1.00 0.0 25 0.00 0.00 0.00 0.000
10/31/2014 4:20:27p 174 4 4 37 61 79.9 66.4 29.92 1.00 0.0 30 0.00 0.00 0.00 0.000

© All rights reserved. Unauthorized duplication or distribution is prohibited

Never base important decisions on this or any weather information obtained from the Internet

California State University, San Bernardino
5500 University Parkway, San Bernardino, CA. 92407
Phone: (909) 537-7558, Email: Weather Master
Last Updated: